GFSGL_prec_precacc24_105.txt.gz
Total_Precipitation_Accumulation
0.25 0.18 0.15 0.15 0.13 0.16 0.14 0.12 0.07 0.12 0.36 0.32 0.49 0.61 0.63 0.64 0.71 0.79 0.62 0.50 0.52 0.49 0.45 0.43 0.32 0.26 0.19 0.16 0.16 0.15 0.11 0.14 0.12 0.04 0.03 0.02 0.09 0.08 0.05 0.05 0.06 0.03 0.01
0.26 0.20 0.16 0.17 0.14 0.14 0.16 0.12 0.06 0.03 0.14 0.18 0.28 0.47 0.51 0.68 0.65 0.75 0.77 0.60 0.53 0.59 0.53 0.44 0.40 0.37 0.31 0.20 0.17 0.12 0.10 0.06 0.09 0.08 0.01 0.02 0.03 0.06 0.06 0.05 0.05 0.04 0.06
0.27 0.24 0.26 0.30 0.19 0.21 0.19 0.11 0.06 0.03 0.04 0.07 0.14 0.21 0.27 0.43 0.71 0.75 0.78 0.64 0.58 0.58 0.60 0.52 0.40 0.32 0.31 0.25 0.17 0.12 0.07 0.07 0.04 0.05 0.02 0.03 0.04 0.06 0.08 0.06 0.05 0.07 0.04
0.29 0.24 0.23 0.28 0.23 0.16 0.15 0.06 0.04 0.02 0.01 0.03 0.04 0.11 0.19 0.29 0.51 0.70 0.71 0.76 0.61 0.58 0.62 0.55 0.46 0.37 0.24 0.20 0.19 0.17 0.14 0.13 0.11 0.08 0.07 0.05 0.04 0.04 0.07 0.07 0.07 0.09 0.12
0.32 0.24 0.26 0.17 0.16 0.09 0.06 0.04 0.02 0.02 0.01 0.02 0.03 0.04 0.13 0.24 0.38 0.48 0.59 0.69 0.73 0.64 0.54 0.62 0.50 0.47 0.48 0.34 0.27 0.26 0.26 0.23 0.15 0.14 0.10 0.07 0.07 0.08 0.09 0.08 0.11 0.07 0.08
0.36 0.28 0.18 0.13 0.11 0.10 0.07 0.04 0.03 0.04 0.03 0.03 0.06 0.07 0.08 0.11 0.31 0.32 0.54 0.85 0.84 0.79 0.67 0.56 0.63 0.64 0.63 0.62 0.40 0.28 0.30 0.32 0.27 0.20 0.18 0.19 0.13 0.11 0.09 0.07 0.06 0.06 0.10
0.26 0.20 0.15 0.14 0.10 0.08 0.05 0.05 0.06 0.11 0.07 0.06 0.06 0.06 0.05 0.05 0.24 0.23 0.37 0.57 0.93 0.79 0.81 0.75 0.69 0.62 0.59 0.50 0.47 0.35 0.27 0.21 0.25 0.23 0.24 0.22 0.25 0.26 0.33 0.38 0.43 0.47 0.45
0.18 0.18 0.19 0.19 0.16 0.16 0.15 0.12 0.12 0.13 0.15 0.14 0.13 0.13 0.16 0.21 0.22 0.20 0.34 0.31 0.45 0.62 0.67 0.70 0.66 0.63 0.67 0.57 0.43 0.42 0.36 0.31 0.34 0.41 0.54 0.72 0.75 0.70 0.78 0.85 0.87 0.88 0.92
0.17 0.18 0.20 0.24 0.22 0.17 0.18 0.18 0.18 0.16 0.14 0.14 0.19 0.20 0.20 0.21 0.31 0.19 0.19 0.14 0.30 0.48 0.58 0.70 0.75 0.70 0.93 0.82 0.56 0.66 0.81 0.81 0.87 0.76 0.64 0.67 0.65 0.56 0.47 0.43 0.50 0.65 0.85
0.34 0.29 0.23 0.29 0.34 0.37 0.30 0.21 0.19 0.19 0.16 0.13 0.14 0.14 0.26 0.15 0.32 0.23 0.19 0.09 0.27 0.45 0.56 0.61 0.82 0.64 0.76 0.64 0.56 0.59 0.87 1.09 1.01 0.96 0.87 0.75 0.59 0.50 0.48 0.31 0.27 0.31 0.40
0.72 0.61 0.51 0.44 0.43 0.47 0.53 0.47 0.32 0.24 0.20 0.17 0.16 0.14 0.15 0.20 0.25 0.30 0.34 0.25 0.36 0.44 0.48 0.53 0.68 0.93 0.80 0.89 0.94 0.95 1.30 1.28 1.19 0.94 0.79 0.69 0.61 0.50 0.44 0.41 0.37 0.35 0.37
1.14 1.04 0.97 0.86 0.78 0.71 0.66 0.66 0.58 0.44 0.30 0.23 0.19 0.18 0.19 0.24 0.36 0.32 0.30 0.30 0.36 0.27 0.34 0.32 0.39 0.41 0.42 0.48 0.53 0.71 0.75 0.73 0.69 0.62 0.54 0.47 0.45 0.44 0.39 0.33 0.30 0.29 0.29
1.44 1.37 1.38 1.27 1.16 1.05 0.95 0.88 0.77 0.67 0.57 0.48 0.37 0.36 0.37 0.33 0.39 0.40 0.34 0.31 0.27 0.17 0.25 0.39 0.40 0.32 0.30 0.32 0.33 0.33 0.32 0.30 0.32 0.32 0.30 0.27 0.23 0.22 0.18 0.16 0.14 0.12 0.09
0.93 1.00 1.15 1.19 1.15 1.12 1.03 1.02 0.96 0.91 0.87 0.82 0.70 0.64 0.60 0.53 0.47 0.42 0.40 0.38 0.36 0.32 0.33 0.29 0.23 0.19 0.17 0.21 0.24 0.25 0.23 0.20 0.18 0.16 0.14 0.11 0.07 0.05 0.03 0.04 0.04 0.05 0.04
0.51 0.58 0.59 0.61 0.67 0.70 0.69 0.68 0.63 0.72 0.62 0.57 0.57 0.52 0.47 0.48 0.51 0.39 0.32 0.29 0.28 0.28 0.23 0.18 0.14 0.12 0.10 0.09 0.07 0.06 0.05 0.05 0.04 0.03 0.02 0.02 0.01 0.00 0.00 0.00 0.00 0.00 0.00
0.31 0.34 0.41 0.44 0.44 0.46 0.50 0.55 0.54 0.52 0.42 0.38 0.36 0.32 0.34 0.34 0.27 0.20 0.16 0.14 0.12 0.09 0.07 0.08 0.09 0.07 0.06 0.05 0.04 0.03 0.02 0.01 0.01 0.00 0.00 0.00 0.00 0.00 0.00 0.00 0.00 0.00 0.00
0.03 0.04 0.07 0.11 0.16 0.20 0.23 0.25 0.33 0.38 0.35 0.37 0.38 0.37 0.34 0.33 0.28 0.25 0.22 0.20 0.18 0.14 0.14 0.15 0.14 0.13 0.11 0.09 0.07 0.05 0.04 0.03 0.02 0.02 0.02 0.02 0.02 0.02 0.02 0.02 0.02 0.01 0.01
0.01 0.00 0.00 0.01 0.01 0.01 0.01 0.02 0.03 0.05 0.06 0.08 0.08 0.10 0.12 0.13 0.13 0.12 0.12 0.10 0.11 0.12 0.13 0.14 0.15 0.14 0.13 0.12 0.10 0.08 0.06 0.05 0.04 0.03 0.03 0.03 0.03 0.03 0.02 0.01 0.00 0.00 0.00
0.00 0.01 0.01 0.01 0.01 0.01 0.01 0.00 0.00 0.01 0.01 0.02 0.01 0.00 0.00 0.00 0.00 0.00 0.00 0.00 0.00 0.01 0.00 0.00 0.01 0.01 0.01 0.00 0.01 0.01 0.00 0.00 0.00 0.00 0.00 0.00 0.00 0.00 0.00 0.00 0.00 0.00 0.00
0.00 0.00 0.00 0.01 0.01 0.01 0.00 0.00 0.00 0.00 0.00 0.00 0.00 0.00 0.00 0.00 0.00 0.00 0.00 0.00 0.00 0.00 0.00 0.00 0.00 0.00 0.00 0.00 0.00 0.00 0.00 0.00 0.00 0.00 0.00 0.00 0.00 0.00 0.00 0.00 0.00 0.00 0.00
0.01 0.00 0.00 0.00 0.00 0.00 0.00 0.00 0.00 0.00 0.00 0.00 0.01 0.00 0.00 0.00 0.00 0.00 0.00 0.00 0.00 0.01 0.00 0.00 0.00 0.00 0.00 0.00 0.00 0.00 0.00 0.00 0.00 0.00 0.00 0.00 0.00 0.00 0.00 0.00 0.00 0.00 0.00
0.00 0.00 0.00 0.00 0.00 0.00 0.00 0.00 0.00 0.00 0.00 0.00 0.00 0.00 0.00 0.00 0.00 0.00 0.00 0.00 0.00 0.00 0.01 0.00 0.00 0.00 0.00 0.00 0.00 0.00 0.00 0.00 0.00 0.00 0.00 0.00 0.00 0.00 0.00 0.00 0.00 0.00 0.00
0.00 0.00 0.00 0.00 0.00 0.00 0.00 0.00 0.00 0.00 0.00 0.00 0.00 0.00 0.00 0.00 0.00 0.00 0.01 0.01 0.01 0.01 0.00 0.00 0.00 0.00 0.00 0.01 0.00 0.01 0.00 0.00 0.01 0.00 0.00 0.00 0.00 0.00 0.00 0.00 0.00 0.00 0.00
0.00 0.00 0.00 0.00 0.00 0.00 0.01 0.02 0.01 0.01 0.01 0.02 0.01 0.01 0.01 0.01 0.01 0.01 0.01 0.01 0.01 0.01 0.00 0.01 0.00 0.00 0.00 0.00 0.00 0.01 0.00 0.00 0.00 0.00 0.00 0.00 0.00 0.00 0.00 0.00 0.00 0.00 0.00
0.00 0.00 0.00 0.01 0.01 0.01 0.01 0.01 0.01 0.01 0.01 0.01 0.01 0.01 0.02 0.01 0.00 0.01 0.00 0.00 0.00 0.00 0.00 0.01 0.00 0.00 0.00 0.00 0.00 0.00 0.00 0.00 0.00 0.00 0.00 0.00 0.00 0.00 0.00 0.00 0.00 0.00 0.00
0.00 0.00 0.00 0.00 0.01 0.01 0.01 0.01 0.01 0.01 0.01 0.01 0.01 0.01 0.01 0.01 0.01 0.01 0.00 0.00 0.00 0.00 0.00 0.01 0.00 0.00 0.00 0.01 0.01 0.00 0.00 0.00 0.00 0.00 0.00 0.00 0.01 0.01 0.00 0.00 0.00 0.00 0.00

GFSGL_prec_precacc24_108.txt.gz
Total_Precipitation_Accumulation
0.28 0.22 0.18 0.17 0.14 0.16 0.15 0.15 0.11 0.16 0.36 0.32 0.50 0.61 0.65 0.65 0.72 0.81 0.62 0.50 0.52 0.49 0.45 0.44 0.32 0.26 0.23 0.18 0.17 0.16 0.13 0.15 0.11 0.03 0.03 0.02 0.09 0.08 0.05 0.05 0.06 0.03 0.01
0.31 0.26 0.24 0.19 0.15 0.15 0.16 0.16 0.11 0.08 0.17 0.19 0.30 0.50 0.53 0.69 0.67 0.77 0.79 0.62 0.55 0.61 0.54 0.47 0.47 0.46 0.40 0.24 0.20 0.15 0.13 0.10 0.11 0.08 0.01 0.02 0.03 0.06 0.06 0.05 0.05 0.04 0.06
0.35 0.34 0.34 0.40 0.27 0.27 0.26 0.20 0.16 0.10 0.10 0.09 0.16 0.22 0.28 0.44 0.72 0.75 0.79 0.66 0.61 0.62 0.65 0.60 0.49 0.46 0.47 0.34 0.21 0.15 0.11 0.10 0.07 0.08 0.04 0.04 0.04 0.06 0.08 0.06 0.05 0.07 0.04
0.36 0.35 0.33 0.39 0.34 0.27 0.29 0.21 0.15 0.09 0.05 0.05 0.05 0.12 0.20 0.29 0.51 0.70 0.72 0.76 0.61 0.59 0.65 0.62 0.60 0.51 0.37 0.34 0.29 0.22 0.20 0.21 0.18 0.13 0.12 0.07 0.05 0.05 0.09 0.08 0.07 0.10 0.13
0.37 0.30 0.37 0.29 0.37 0.31 0.27 0.15 0.10 0.05 0.03 0.02 0.03 0.04 0.14 0.25 0.38 0.48 0.59 0.69 0.74 0.65 0.56 0.66 0.65 0.69 0.67 0.50 0.37 0.34 0.31 0.31 0.26 0.24 0.18 0.13 0.10 0.10 0.12 0.12 0.15 0.12 0.13
0.44 0.45 0.30 0.36 0.22 0.20 0.18 0.09 0.10 0.05 0.03 0.03 0.06 0.08 0.09 0.12 0.31 0.32 0.54 0.85 0.85 0.85 0.77 0.67 0.82 0.88 0.84 0.87 0.61 0.45 0.44 0.43 0.34 0.29 0.27 0.25 0.16 0.15 0.15 0.17 0.20 0.15 0.15
0.52 0.67 0.48 0.56 0.35 0.14 0.08 0.07 0.07 0.12 0.09 0.07 0.07 0.07 0.05 0.05 0.25 0.23 0.38 0.57 0.94 0.89 1.02 0.95 0.86 0.84 0.82 0.74 0.76 0.60 0.52 0.47 0.45 0.36 0.36 0.31 0.31 0.29 0.37 0.48 0.56 0.56 0.50
0.19 0.28 0.48 0.53 0.39 0.24 0.16 0.11 0.11 0.13 0.15 0.15 0.14 0.14 0.15 0.19 0.20 0.21 0.36 0.31 0.45 0.65 0.74 0.83 0.90 0.87 0.88 0.81 0.69 0.72 0.69 0.67 0.67 0.66 0.76 0.90 0.91 0.85 0.93 0.95 0.96 0.97 0.98
0.18 0.19 0.23 0.32 0.37 0.27 0.23 0.21 0.22 0.18 0.16 0.15 0.17 0.19 0.19 0.19 0.26 0.19 0.19 0.14 0.29 0.49 0.61 0.76 0.92 0.96 1.26 1.17 0.85 1.03 1.19 1.19 1.25 1.08 0.87 0.85 0.76 0.68 0.61 0.55 0.64 0.71 0.82
0.35 0.30 0.24 0.30 0.36 0.40 0.35 0.29 0.26 0.25 0.22 0.16 0.14 0.12 0.24 0.14 0.29 0.24 0.22 0.10 0.23 0.36 0.47 0.56 0.83 0.78 1.04 1.06 0.95 0.92 1.09 1.27 1.17 1.14 1.05 0.88 0.68 0.55 0.52 0.41 0.41 0.41 0.39
0.72 0.61 0.52 0.45 0.45 0.49 0.55 0.56 0.53 0.47 0.41 0.33 0.30 0.21 0.16 0.18 0.23 0.28 0.35 0.26 0.34 0.35 0.38 0.42 0.58 0.83 0.81 1.01 1.13 1.05 1.17 1.09 0.96 0.73 0.63 0.55 0.49 0.38 0.30 0.30 0.29 0.29 0.30
1.15 1.04 0.97 0.86 0.78 0.71 0.68 0.71 0.64 0.61 0.58 0.53 0.45 0.33 0.26 0.27 0.38 0.35 0.32 0.31 0.38 0.28 0.35 0.29 0.31 0.28 0.29 0.34 0.41 0.61 0.59 0.51 0.42 0.39 0.37 0.35 0.29 0.24 0.23 0.21 0.20 0.19 0.17
1.44 1.37 1.38 1.27 1.16 1.05 0.95 0.90 0.80 0.73 0.65 0.63 0.59 0.58 0.56 0.47 0.47 0.47 0.40 0.35 0.29 0.19 0.28 0.43 0.42 0.32 0.29 0.28 0.29 0.29 0.28 0.25 0.26 0.27 0.28 0.28 0.25 0.21 0.11 0.07 0.07 0.08 0.07
0.93 1.00 1.15 1.19 1.15 1.12 1.03 1.02 0.97 0.93 0.92 0.90 0.79 0.75 0.72 0.65 0.58 0.51 0.48 0.47 0.44 0.38 0.38 0.32 0.26 0.21 0.19 0.26 0.31 0.31 0.28 0.24 0.20 0.18 0.18 0.18 0.15 0.10 0.06 0.03 0.02 0.02 0.01
0.51 0.58 0.59 0.61 0.67 0.70 0.69 0.68 0.64 0.74 0.66 0.61 0.63 0.59 0.54 0.57 0.63 0.51 0.44 0.40 0.38 0.38 0.32 0.25 0.19 0.16 0.14 0.14 0.12 0.11 0.11 0.11 0.11 0.11 0.09 0.08 0.06 0.05 0.04 0.03 0.03 0.02 0.02
0.31 0.34 0.41 0.44 0.44 0.46 0.50 0.54 0.53 0.51 0.43 0.40 0.40 0.36 0.39 0.42 0.35 0.28 0.24 0.21 0.19 0.16 0.12 0.14 0.15 0.12 0.11 0.11 0.10 0.10 0.08 0.06 0.05 0.03 0.03 0.03 0.03 0.02 0.01 0.01 0.01 0.01 0.01
0.03 0.04 0.07 0.11 0.16 0.20 0.23 0.25 0.33 0.37 0.35 0.37 0.38 0.38 0.36 0.36 0.32 0.30 0.28 0.25 0.23 0.17 0.17 0.18 0.18 0.16 0.15 0.12 0.11 0.09 0.08 0.07 0.05 0.03 0.03 0.04 0.04 0.04 0.03 0.03 0.03 0.02 0.02
0.00 0.00 0.00 0.01 0.01 0.01 0.01 0.02 0.03 0.05 0.06 0.07 0.07 0.10 0.12 0.13 0.13 0.13 0.13 0.11 0.13 0.13 0.15 0.17 0.18 0.16 0.15 0.14 0.12 0.10 0.08 0.07 0.05 0.04 0.04 0.04 0.04 0.03 0.02 0.01 0.01 0.00 0.00
0.00 0.00 0.01 0.01 0.01 0.01 0.01 0.00 0.00 0.01 0.01 0.01 0.01 0.00 0.00 0.00 0.00 0.00 0.00 0.00 0.00 0.01 0.00 0.01 0.01 0.01 0.01 0.01 0.01 0.01 0.00 0.01 0.00 0.00 0.00 0.00 0.01 0.00 0.00 0.00 0.00 0.00 0.00
0.00 0.00 0.00 0.01 0.01 0.01 0.00 0.00 0.00 0.00 0.00 0.00 0.00 0.00 0.00 0.00 0.00 0.00 0.00 0.00 0.01 0.01 0.00 0.00 0.00 0.00 0.00 0.00 0.00 0.00 0.00 0.00 0.00 0.00 0.00 0.00 0.00 0.00 0.00 0.00 0.00 0.00 0.00
0.01 0.00 0.00 0.00 0.00 0.00 0.00 0.00 0.00 0.00 0.00 0.00 0.00 0.00 0.00 0.00 0.00 0.00 0.00 0.00 0.00 0.01 0.01 0.00 0.00 0.00 0.00 0.00 0.00 0.00 0.00 0.00 0.00 0.00 0.00 0.00 0.00 0.00 0.00 0.00 0.00 0.00 0.00
0.00 0.00 0.00 0.00 0.00 0.00 0.00 0.00 0.00 0.00 0.00 0.00 0.00 0.00 0.00 0.00 0.00 0.00 0.00 0.00 0.01 0.00 0.01 0.00 0.00 0.00 0.00 0.00 0.00 0.00 0.00 0.00 0.00 0.00 0.00 0.00 0.00 0.00 0.00 0.00 0.00 0.00 0.00
0.00 0.00 0.00 0.00 0.00 0.00 0.00 0.00 0.00 0.00 0.00 0.00 0.00 0.00 0.00 0.00 0.00 0.00 0.01 0.01 0.01 0.01 0.00 0.00 0.00 0.00 0.00 0.01 0.00 0.01 0.00 0.00 0.01 0.00 0.00 0.00 0.00 0.00 0.00 0.00 0.00 0.00 0.00
0.00 0.00 0.00 0.00 0.00 0.00 0.01 0.01 0.01 0.01 0.01 0.02 0.02 0.01 0.01 0.01 0.01 0.01 0.01 0.00 0.01 0.01 0.00 0.01 0.00 0.00 0.00 0.00 0.00 0.01 0.00 0.00 0.00 0.00 0.00 0.00 0.00 0.00 0.00 0.00 0.00 0.00 0.00
0.00 0.00 0.00 0.01 0.01 0.01 0.01 0.02 0.01 0.01 0.01 0.01 0.01 0.01 0.02 0.01 0.00 0.01 0.00 0.00 0.00 0.00 0.00 0.01 0.00 0.00 0.00 0.00 0.00 0.00 0.00 0.00 0.00 0.00 0.00 0.00 0.00 0.00 0.00 0.00 0.00 0.00 0.00
0.00 0.00 0.00 0.00 0.01 0.01 0.01 0.01 0.01 0.01 0.01 0.01 0.01 0.01 0.01 0.01 0.01 0.01 0.00 0.00 0.00 0.00 0.00 0.00 0.00 0.00 0.00 0.01 0.00 0.00 0.00 0.00 0.00 0.00 0.00 0.00 0.01 0.01 0.00 0.00 0.00 0.00 0.00

GFSGL_prec_precacc24_111.txt.gz
Total_Precipitation_Accumulation
0.39 0.32 0.26 0.22 0.20 0.20 0.18 0.16 0.12 0.16 0.35 0.25 0.38 0.50 0.56 0.63 0.72 0.81 0.65 0.53 0.53 0.50 0.46 0.43 0.31 0.24 0.19 0.15 0.14 0.14 0.12 0.16 0.12 0.03 0.04 0.04 0.11 0.10 0.06 0.05 0.06 0.03 0.01
0.42 0.34 0.31 0.24 0.19 0.21 0.23 0.21 0.14 0.12 0.21 0.23 0.30 0.46 0.48 0.60 0.65 0.75 0.80 0.64 0.56 0.61 0.53 0.46 0.45 0.43 0.37 0.23 0.18 0.13 0.12 0.10 0.12 0.10 0.04 0.04 0.05 0.07 0.06 0.05 0.05 0.04 0.06
0.50 0.51 0.50 0.55 0.40 0.33 0.31 0.27 0.24 0.20 0.21 0.24 0.28 0.29 0.30 0.43 0.70 0.73 0.79 0.67 0.61 0.62 0.65 0.60 0.49 0.47 0.48 0.35 0.24 0.18 0.12 0.12 0.11 0.15 0.12 0.10 0.06 0.06 0.08 0.06 0.05 0.07 0.04
0.44 0.46 0.49 0.53 0.52 0.43 0.40 0.28 0.24 0.20 0.19 0.19 0.14 0.17 0.22 0.30 0.51 0.71 0.72 0.77 0.61 0.59 0.64 0.62 0.61 0.55 0.41 0.38 0.34 0.26 0.24 0.25 0.22 0.17 0.19 0.17 0.13 0.06 0.09 0.09 0.07 0.10 0.13
0.39 0.34 0.44 0.41 0.45 0.40 0.32 0.22 0.17 0.13 0.10 0.10 0.09 0.08 0.16 0.25 0.39 0.48 0.59 0.69 0.74 0.65 0.56 0.66 0.65 0.71 0.70 0.54 0.44 0.43 0.39 0.41 0.39 0.37 0.31 0.21 0.19 0.16 0.14 0.13 0.15 0.12 0.13
0.50 0.49 0.33 0.49 0.40 0.31 0.33 0.32 0.24 0.22 0.13 0.14 0.15 0.13 0.11 0.13 0.33 0.33 0.55 0.86 0.85 0.85 0.77 0.67 0.83 0.91 0.88 0.91 0.67 0.54 0.54 0.51 0.45 0.38 0.38 0.35 0.22 0.18 0.18 0.22 0.25 0.17 0.16
0.55 0.87 0.76 0.73 0.80 0.58 0.23 0.27 0.23 0.31 0.21 0.19 0.14 0.10 0.07 0.06 0.27 0.25 0.40 0.57 0.95 0.89 1.02 0.95 0.87 0.88 0.93 0.86 0.97 0.90 0.83 0.71 0.58 0.44 0.42 0.35 0.34 0.31 0.38 0.56 0.65 0.63 0.54
0.19 0.39 0.76 0.80 0.98 0.97 0.60 0.33 0.35 0.25 0.27 0.17 0.16 0.15 0.16 0.19 0.20 0.22 0.38 0.31 0.45 0.65 0.73 0.80 0.88 0.87 0.90 0.89 0.88 0.97 0.98 0.99 0.97 0.88 0.87 0.97 0.96 0.94 1.07 1.03 0.95 0.95 0.95
0.17 0.20 0.29 0.57 0.63 0.67 0.73 0.54 0.32 0.24 0.17 0.15 0.17 0.18 0.17 0.16 0.24 0.20 0.20 0.14 0.30 0.48 0.57 0.71 0.89 0.96 1.28 1.26 1.05 1.22 1.31 1.29 1.40 1.25 1.04 0.97 0.87 0.82 0.78 0.62 0.58 0.58 0.65
0.37 0.31 0.25 0.31 0.40 0.51 0.61 0.59 0.45 0.32 0.29 0.20 0.15 0.12 0.21 0.12 0.27 0.26 0.25 0.10 0.21 0.30 0.39 0.48 0.78 0.77 1.05 1.09 1.00 0.99 1.12 1.30 1.24 1.29 1.25 1.06 0.95 0.84 0.80 0.67 0.63 0.57 0.48
0.73 0.61 0.52 0.45 0.45 0.51 0.57 0.59 0.58 0.53 0.48 0.47 0.43 0.33 0.27 0.26 0.26 0.30 0.39 0.30 0.35 0.36 0.39 0.43 0.56 0.78 0.78 1.00 1.13 1.06 1.16 1.09 1.06 0.93 0.85 0.75 0.62 0.53 0.49 0.48 0.46 0.45 0.44
1.15 1.04 0.97 0.87 0.78 0.71 0.68 0.71 0.65 0.61 0.59 0.56 0.51 0.47 0.44 0.47 0.58 0.50 0.40 0.35 0.42 0.29 0.36 0.30 0.34 0.31 0.31 0.38 0.46 0.66 0.64 0.57 0.51 0.55 0.55 0.53 0.47 0.43 0.41 0.41 0.42 0.40 0.38
1.44 1.37 1.37 1.27 1.16 1.05 0.95 0.90 0.80 0.73 0.65 0.64 0.59 0.61 0.62 0.55 0.58 0.59 0.52 0.45 0.36 0.23 0.33 0.47 0.46 0.35 0.32 0.31 0.34 0.33 0.31 0.26 0.27 0.31 0.34 0.39 0.39 0.40 0.31 0.25 0.23 0.23 0.24
0.93 1.00 1.15 1.19 1.15 1.12 1.03 1.02 0.97 0.94 0.92 0.90 0.79 0.75 0.72 0.66 0.60 0.54 0.53 0.53 0.50 0.43 0.43 0.37 0.30 0.25 0.22 0.30 0.35 0.35 0.32 0.30 0.25 0.22 0.21 0.21 0.19 0.18 0.16 0.14 0.13 0.13 0.10
0.51 0.58 0.59 0.61 0.67 0.70 0.69 0.69 0.64 0.76 0.67 0.62 0.64 0.60 0.55 0.57 0.65 0.53 0.46 0.42 0.42 0.43 0.38 0.31 0.25 0.21 0.20 0.20 0.20 0.18 0.17 0.18 0.19 0.21 0.18 0.16 0.13 0.11 0.09 0.08 0.09 0.08 0.08
0.31 0.34 0.40 0.43 0.44 0.46 0.49 0.53 0.52 0.50 0.43 0.40 0.40 0.36 0.38 0.42 0.35 0.29 0.25 0.23 0.22 0.20 0.15 0.18 0.21 0.20 0.19 0.20 0.20 0.22 0.20 0.19 0.18 0.15 0.14 0.13 0.13 0.13 0.12 0.09 0.09 0.08 0.09
0.03 0.04 0.07 0.11 0.16 0.20 0.23 0.25 0.32 0.37 0.34 0.36 0.37 0.38 0.36 0.36 0.32 0.30 0.28 0.25 0.24 0.18 0.18 0.21 0.20 0.20 0.19 0.18 0.17 0.16 0.15 0.15 0.13 0.11 0.11 0.10 0.09 0.08 0.07 0.06 0.06 0.05 0.05
0.00 0.00 0.00 0.01 0.01 0.01 0.01 0.02 0.03 0.05 0.06 0.07 0.07 0.09 0.11 0.12 0.13 0.13 0.13 0.11 0.13 0.13 0.16 0.17 0.19 0.18 0.17 0.16 0.14 0.13 0.12 0.11 0.09 0.08 0.08 0.07 0.06 0.05 0.04 0.04 0.03 0.02 0.01
0.00 0.00 0.01 0.01 0.01 0.01 0.01 0.00 0.00 0.01 0.01 0.01 0.01 0.00 0.00 0.00 0.00 0.00 0.00 0.00 0.00 0.01 0.00 0.01 0.01 0.01 0.01 0.01 0.01 0.01 0.01 0.01 0.00 0.00 0.01 0.01 0.01 0.00 0.00 0.00 0.00 0.00 0.00
0.00 0.00 0.00 0.01 0.01 0.01 0.00 0.00 0.00 0.00 0.00 0.00 0.00 0.00 0.00 0.00 0.00 0.00 0.00 0.00 0.01 0.01 0.00 0.00 0.00 0.00 0.00 0.00 0.00 0.00 0.00 0.00 0.00 0.00 0.00 0.00 0.00 0.00 0.00 0.00 0.00 0.00 0.00
0.01 0.00 0.00 0.00 0.00 0.00 0.00 0.00 0.00 0.00 0.00 0.00 0.00 0.00 0.00 0.00 0.00 0.00 0.00 0.00 0.00 0.01 0.01 0.00 0.00 0.00 0.00 0.00 0.00 0.00 0.00 0.00 0.00 0.00 0.00 0.00 0.00 0.00 0.00 0.00 0.00 0.00 0.00
0.00 0.00 0.00 0.00 0.00 0.00 0.00 0.00 0.00 0.00 0.00 0.00 0.00 0.00 0.00 0.00 0.00 0.00 0.00 0.00 0.01 0.00 0.01 0.00 0.00 0.00 0.00 0.00 0.00 0.00 0.00 0.00 0.00 0.00 0.00 0.00 0.00 0.00 0.00 0.00 0.00 0.00 0.00
0.00 0.00 0.00 0.00 0.00 0.00 0.00 0.00 0.00 0.01 0.01 0.00 0.00 0.00 0.00 0.00 0.00 0.00 0.01 0.01 0.01 0.01 0.00 0.00 0.00 0.00 0.00 0.01 0.00 0.01 0.00 0.00 0.01 0.00 0.00 0.00 0.00 0.00 0.00 0.00 0.00 0.00 0.00
0.00 0.00 0.00 0.00 0.00 0.00 0.01 0.01 0.01 0.01 0.01 0.02 0.02 0.01 0.01 0.01 0.01 0.01 0.01 0.00 0.01 0.01 0.00 0.01 0.00 0.00 0.00 0.00 0.00 0.01 0.00 0.00 0.00 0.00 0.00 0.00 0.00 0.00 0.00 0.00 0.00 0.00 0.00
0.00 0.00 0.00 0.01 0.01 0.01 0.01 0.02 0.01 0.01 0.01 0.01 0.01 0.01 0.02 0.02 0.01 0.01 0.00 0.00 0.00 0.00 0.00 0.01 0.00 0.00 0.00 0.00 0.00 0.00 0.00 0.00 0.00 0.00 0.00 0.00 0.00 0.00 0.00 0.00 0.00 0.00 0.00
0.00 0.00 0.00 0.00 0.01 0.01 0.01 0.01 0.01 0.01 0.01 0.01 0.01 0.01 0.01 0.01 0.01 0.01 0.00 0.00 0.00 0.00 0.00 0.00 0.00 0.00 0.00 0.01 0.00 0.00 0.00 0.00 0.00 0.00 0.00 0.00 0.01 0.01 0.00 0.00 0.00 0.00 0.00

GFSGL_prec_precacc24_114.txt.gz
Total_Precipitation_Accumulation
0.49 0.43 0.33 0.25 0.25 0.25 0.22 0.18 0.13 0.17 0.23 0.14 0.22 0.45 0.56 0.65 0.73 0.83 0.68 0.58 0.58 0.51 0.47 0.44 0.31 0.25 0.19 0.15 0.13 0.12 0.09 0.10 0.08 0.03 0.03 0.04 0.12 0.12 0.09 0.07 0.07 0.04 0.01
0.49 0.46 0.43 0.35 0.29 0.29 0.30 0.26 0.20 0.20 0.24 0.20 0.24 0.42 0.46 0.62 0.70 0.83 0.84 0.66 0.59 0.63 0.55 0.48 0.47 0.43 0.35 0.22 0.16 0.11 0.09 0.09 0.10 0.07 0.04 0.05 0.06 0.08 0.08 0.07 0.06 0.05 0.06
0.54 0.62 0.67 0.69 0.49 0.44 0.39 0.33 0.33 0.36 0.31 0.34 0.40 0.38 0.38 0.49 0.67 0.73 0.80 0.68 0.62 0.63 0.67 0.61 0.51 0.49 0.49 0.37 0.25 0.18 0.13 0.12 0.11 0.15 0.12 0.09 0.05 0.07 0.15 0.15 0.09 0.09 0.05
0.47 0.54 0.63 0.72 0.69 0.58 0.53 0.43 0.38 0.35 0.34 0.34 0.29 0.30 0.31 0.35 0.54 0.69 0.70 0.77 0.62 0.60 0.64 0.62 0.61 0.55 0.42 0.39 0.36 0.29 0.26 0.27 0.23 0.19 0.21 0.18 0.14 0.10 0.13 0.16 0.19 0.19 0.16
0.46 0.41 0.49 0.51 0.57 0.56 0.50 0.34 0.27 0.21 0.17 0.16 0.13 0.12 0.20 0.28 0.41 0.49 0.60 0.70 0.74 0.65 0.55 0.66 0.65 0.71 0.70 0.54 0.43 0.43 0.42 0.44 0.43 0.42 0.37 0.26 0.22 0.21 0.20 0.17 0.18 0.15 0.15
0.82 0.70 0.38 0.64 0.61 0.40 0.46 0.41 0.31 0.28 0.18 0.18 0.18 0.17 0.15 0.16 0.35 0.35 0.56 0.86 0.86 0.85 0.77 0.67 0.82 0.90 0.88 0.92 0.67 0.54 0.55 0.54 0.49 0.44 0.42 0.39 0.23 0.19 0.21 0.26 0.30 0.22 0.19
0.62 1.20 0.95 0.87 1.23 0.86 0.47 0.54 0.37 0.39 0.31 0.28 0.27 0.24 0.19 0.14 0.32 0.28 0.42 0.58 0.95 0.89 1.02 0.95 0.86 0.88 0.92 0.86 0.96 0.91 0.91 0.88 0.69 0.52 0.47 0.37 0.33 0.32 0.40 0.58 0.65 0.56 0.49
0.22 0.52 1.04 1.04 1.22 1.39 1.12 0.74 0.70 0.52 0.48 0.31 0.32 0.30 0.27 0.26 0.28 0.28 0.40 0.31 0.45 0.65 0.73 0.80 0.88 0.86 0.86 0.85 0.88 0.97 1.00 1.02 1.05 1.02 0.99 0.98 0.90 0.83 0.90 0.85 0.79 0.79 0.85
0.17 0.25 0.36 0.75 0.93 0.97 1.12 1.09 0.74 0.64 0.48 0.39 0.27 0.26 0.19 0.15 0.22 0.20 0.21 0.14 0.29 0.46 0.55 0.70 0.88 0.95 1.22 1.21 1.03 1.19 1.27 1.28 1.42 1.42 1.35 1.20 1.05 1.02 0.98 0.88 0.98 0.81 0.85
0.34 0.30 0.24 0.30 0.42 0.59 0.83 0.94 0.95 0.70 0.57 0.44 0.29 0.20 0.28 0.18 0.32 0.30 0.27 0.11 0.20 0.27 0.36 0.47 0.75 0.76 1.03 1.08 0.98 0.96 1.07 1.24 1.16 1.22 1.28 1.22 1.21 1.22 1.28 1.11 0.95 0.81 0.73
0.62 0.55 0.50 0.44 0.45 0.51 0.57 0.60 0.60 0.62 0.59 0.57 0.61 0.54 0.39 0.36 0.36 0.38 0.45 0.33 0.40 0.38 0.40 0.43 0.55 0.75 0.77 0.99 1.11 1.05 1.12 1.05 1.03 0.94 0.93 0.94 0.90 0.87 0.90 0.89 0.84 0.81 0.73
1.03 1.00 0.97 0.86 0.78 0.72 0.68 0.71 0.65 0.62 0.59 0.55 0.51 0.47 0.47 0.50 0.61 0.55 0.50 0.47 0.53 0.36 0.42 0.35 0.38 0.33 0.33 0.41 0.49 0.70 0.67 0.59 0.53 0.59 0.62 0.64 0.63 0.67 0.71 0.74 0.74 0.72 0.69
1.38 1.35 1.36 1.27 1.16 1.05 0.95 0.90 0.80 0.73 0.65 0.64 0.59 0.61 0.62 0.55 0.58 0.59 0.53 0.48 0.41 0.29 0.40 0.55 0.51 0.37 0.33 0.33 0.37 0.37 0.33 0.27 0.29 0.33 0.38 0.47 0.52 0.56 0.52 0.49 0.49 0.51 0.52
0.90 1.00 1.15 1.19 1.16 1.12 1.04 1.03 0.97 0.94 0.92 0.90 0.79 0.76 0.73 0.66 0.60 0.54 0.53 0.53 0.50 0.44 0.45 0.39 0.32 0.28 0.26 0.34 0.39 0.39 0.36 0.35 0.30 0.27 0.26 0.25 0.22 0.21 0.20 0.20 0.22 0.29 0.31
0.48 0.56 0.58 0.60 0.66 0.70 0.68 0.68 0.65 0.75 0.67 0.62 0.64 0.60 0.55 0.58 0.66 0.54 0.46 0.43 0.42 0.44 0.38 0.31 0.25 0.21 0.20 0.22 0.22 0.22 0.23 0.25 0.25 0.28 0.26 0.25 0.22 0.17 0.15 0.14 0.15 0.15 0.17
0.30 0.33 0.40 0.43 0.44 0.46 0.49 0.53 0.51 0.50 0.43 0.40 0.39 0.36 0.38 0.42 0.35 0.29 0.25 0.23 0.22 0.20 0.15 0.18 0.21 0.20 0.19 0.20 0.22 0.24 0.25 0.25 0.26 0.24 0.22 0.22 0.22 0.23 0.23 0.21 0.18 0.17 0.16
0.02 0.04 0.07 0.11 0.16 0.20 0.23 0.25 0.32 0.36 0.34 0.36 0.37 0.37 0.35 0.36 0.32 0.30 0.28 0.25 0.24 0.18 0.18 0.21 0.21 0.20 0.19 0.19 0.18 0.17 0.18 0.19 0.18 0.17 0.17 0.18 0.17 0.16 0.14 0.13 0.12 0.10 0.11
0.00 0.00 0.00 0.00 0.00 0.00 0.01 0.02 0.03 0.04 0.06 0.07 0.07 0.09 0.11 0.12 0.13 0.13 0.13 0.11 0.13 0.13 0.16 0.17 0.19 0.18 0.17 0.16 0.15 0.14 0.13 0.13 0.11 0.11 0.11 0.11 0.11 0.10 0.09 0.09 0.08 0.06 0.05
0.00 0.00 0.00 0.00 0.00 0.00 0.00 0.00 0.00 0.00 0.00 0.01 0.00 0.00 0.00 0.00 0.00 0.00 0.00 0.00 0.00 0.01 0.00 0.01 0.01 0.01 0.01 0.01 0.01 0.01 0.01 0.01 0.01 0.01 0.01 0.01 0.01 0.01 0.01 0.01 0.01 0.00 0.00
0.00 0.00 0.00 0.01 0.00 0.00 0.00 0.00 0.00 0.00 0.00 0.00 0.00 0.00 0.00 0.00 0.00 0.00 0.00 0.00 0.01 0.01 0.01 0.00 0.00 0.00 0.00 0.00 0.00 0.00 0.00 0.00 0.00 0.00 0.00 0.00 0.00 0.00 0.00 0.00 0.00 0.00 0.00
0.00 0.00 0.00 0.00 0.00 0.00 0.00 0.00 0.00 0.00 0.00 0.00 0.01 0.00 0.00 0.00 0.00 0.00 0.00 0.00 0.01 0.01 0.01 0.00 0.01 0.00 0.00 0.00 0.00 0.00 0.00 0.00 0.00 0.00 0.00 0.00 0.00 0.00 0.00 0.00 0.00 0.00 0.00
0.00 0.00 0.00 0.00 0.00 0.00 0.00 0.00 0.00 0.00 0.00 0.00 0.00 0.00 0.00 0.00 0.00 0.00 0.01 0.01 0.01 0.01 0.01 0.01 0.00 0.00 0.00 0.00 0.00 0.00 0.00 0.00 0.00 0.00 0.00 0.00 0.00 0.00 0.00 0.00 0.00 0.00 0.00
0.00 0.00 0.00 0.00 0.00 0.00 0.00 0.00 0.01 0.01 0.01 0.01 0.01 0.01 0.01 0.01 0.01 0.01 0.01 0.01 0.01 0.01 0.00 0.00 0.00 0.00 0.00 0.00 0.00 0.00 0.00 0.00 0.00 0.00 0.00 0.00 0.00 0.00 0.00 0.00 0.00 0.00 0.00
0.00 0.00 0.00 0.00 0.00 0.00 0.01 0.01 0.01 0.01 0.01 0.02 0.02 0.02 0.01 0.01 0.01 0.01 0.01 0.01 0.01 0.01 0.00 0.01 0.00 0.00 0.00 0.00 0.00 0.00 0.00 0.00 0.00 0.00 0.00 0.00 0.00 0.00 0.00 0.00 0.00 0.00 0.00
0.00 0.01 0.01 0.01 0.01 0.01 0.01 0.02 0.01 0.01 0.01 0.01 0.02 0.02 0.02 0.02 0.01 0.01 0.01 0.01 0.00 0.01 0.01 0.01 0.00 0.00 0.00 0.00 0.00 0.00 0.00 0.00 0.00 0.00 0.00 0.00 0.00 0.00 0.00 0.00 0.00 0.00 0.00
0.00 0.00 0.01 0.01 0.01 0.01 0.01 0.01 0.02 0.01 0.01 0.01 0.02 0.02 0.02 0.02 0.01 0.01 0.01 0.01 0.00 0.00 0.00 0.01 0.01 0.00 0.00 0.01 0.00 0.00 0.00 0.00 0.00 0.00 0.00 0.00 0.01 0.00 0.00 0.00 0.00 0.00 0.00

GFSGL_prec_precacc24_117.txt.gz
Total_Precipitation_Accumulation
0.50 0.45 0.35 0.27 0.26 0.29 0.28 0.25 0.21 0.31 0.27 0.18 0.13 0.20 0.40 0.52 0.62 0.77 0.68 0.62 0.64 0.54 0.50 0.45 0.31 0.25 0.20 0.16 0.15 0.12 0.09 0.08 0.08 0.03 0.03 0.04 0.08 0.08 0.08 0.08 0.09 0.07 0.02
0.56 0.50 0.50 0.44 0.33 0.36 0.49 0.48 0.43 0.40 0.37 0.30 0.28 0.29 0.37 0.58 0.67 0.84 0.86 0.72 0.69 0.71 0.60 0.55 0.50 0.45 0.37 0.24 0.20 0.13 0.10 0.10 0.10 0.06 0.05 0.05 0.06 0.08 0.07 0.06 0.07 0.07 0.08
0.61 0.68 0.77 0.79 0.58 0.50 0.60 0.61 0.50 0.56 0.57 0.56 0.61 0.56 0.46 0.57 0.75 0.81 0.88 0.78 0.76 0.78 0.74 0.68 0.55 0.54 0.54 0.42 0.31 0.24 0.17 0.13 0.12 0.15 0.13 0.10 0.06 0.07 0.14 0.14 0.09 0.11 0.10
0.59 0.57 0.68 0.80 0.78 0.73 0.66 0.57 0.53 0.51 0.54 0.56 0.42 0.36 0.33 0.33 0.53 0.70 0.70 0.79 0.65 0.65 0.69 0.69 0.68 0.60 0.44 0.42 0.38 0.31 0.28 0.29 0.24 0.18 0.18 0.18 0.15 0.10 0.11 0.14 0.20 0.24 0.27
0.90 0.60 0.57 0.59 0.64 0.73 0.68 0.49 0.43 0.39 0.38 0.35 0.30 0.27 0.31 0.34 0.46 0.56 0.65 0.75 0.79 0.70 0.59 0.70 0.68 0.72 0.71 0.54 0.42 0.42 0.41 0.44 0.43 0.41 0.37 0.26 0.22 0.18 0.18 0.16 0.17 0.18 0.20
1.05 1.13 0.56 0.81 0.72 0.45 0.54 0.51 0.40 0.40 0.30 0.28 0.26 0.24 0.26 0.27 0.49 0.49 0.64 0.90 0.88 0.87 0.78 0.67 0.83 0.91 0.88 0.92 0.67 0.52 0.48 0.47 0.45 0.42 0.42 0.40 0.24 0.18 0.20 0.28 0.35 0.31 0.25
0.72 1.53 1.40 1.25 1.78 1.13 0.59 0.74 0.50 0.48 0.39 0.38 0.35 0.29 0.24 0.20 0.42 0.40 0.55 0.63 0.94 0.91 1.03 0.95 0.86 0.87 0.90 0.86 0.96 0.90 0.88 0.87 0.69 0.53 0.51 0.42 0.36 0.30 0.33 0.49 0.55 0.43 0.38
0.24 0.59 1.22 1.20 1.62 2.13 1.42 1.20 1.19 0.91 0.68 0.45 0.41 0.36 0.33 0.37 0.43 0.47 0.67 0.56 0.62 0.69 0.74 0.81 0.89 0.87 0.85 0.85 0.87 0.95 0.96 0.95 0.94 0.86 0.79 0.78 0.76 0.70 0.78 0.73 0.72 0.77 0.81
0.17 0.25 0.37 0.77 1.04 1.21 1.53 1.57 1.37 1.29 1.14 0.85 0.56 0.46 0.39 0.29 0.36 0.33 0.37 0.33 0.45 0.56 0.61 0.70 0.85 0.94 1.12 1.14 0.96 1.06 1.08 1.07 1.26 1.31 1.27 1.16 1.06 1.08 1.07 1.01 1.28 1.04 1.00
0.30 0.27 0.23 0.28 0.39 0.57 0.88 1.11 1.18 1.03 0.97 0.91 0.70 0.50 0.54 0.45 0.48 0.45 0.35 0.16 0.22 0.27 0.35 0.45 0.69 0.74 0.97 1.04 0.96 0.95 1.06 1.22 1.13 1.17 1.22 1.16 1.19 1.25 1.44 1.41 1.26 1.04 0.90
0.55 0.44 0.39 0.39 0.39 0.43 0.49 0.54 0.55 0.59 0.59 0.60 0.68 0.64 0.53 0.52 0.60 0.63 0.68 0.51 0.51 0.44 0.40 0.40 0.52 0.73 0.74 0.91 1.05 1.04 1.10 1.03 1.00 0.93 0.93 0.94 0.91 0.91 0.99 1.09 1.13 1.12 1.00
0.85 0.84 0.77 0.70 0.68 0.68 0.62 0.60 0.57 0.55 0.53 0.52 0.49 0.44 0.44 0.49 0.61 0.56 0.52 0.50 0.58 0.44 0.50 0.42 0.45 0.39 0.36 0.44 0.51 0.71 0.68 0.60 0.53 0.59 0.62 0.64 0.63 0.68 0.76 0.84 0.91 0.96 0.97
1.11 1.10 1.15 1.07 0.98 0.96 0.93 0.86 0.76 0.72 0.65 0.63 0.59 0.60 0.61 0.55 0.58 0.59 0.54 0.49 0.41 0.29 0.41 0.56 0.53 0.39 0.35 0.34 0.39 0.38 0.33 0.28 0.29 0.34 0.41 0.49 0.54 0.59 0.55 0.55 0.59 0.66 0.72
0.66 0.79 0.96 1.05 1.06 1.07 1.02 1.02 0.96 0.94 0.92 0.90 0.79 0.76 0.73 0.66 0.60 0.54 0.54 0.53 0.50 0.44 0.45 0.39 0.32 0.28 0.26 0.35 0.40 0.41 0.39 0.38 0.32 0.30 0.31 0.30 0.27 0.24 0.23 0.23 0.27 0.34 0.37
0.38 0.44 0.48 0.55 0.63 0.68 0.67 0.67 0.64 0.74 0.67 0.62 0.63 0.60 0.55 0.58 0.66 0.54 0.46 0.43 0.42 0.44 0.38 0.31 0.25 0.21 0.20 0.22 0.22 0.22 0.24 0.26 0.26 0.30 0.29 0.29 0.26 0.21 0.19 0.18 0.18 0.20 0.24
0.20 0.27 0.33 0.35 0.37 0.41 0.46 0.50 0.49 0.49 0.42 0.39 0.39 0.35 0.38 0.42 0.35 0.29 0.25 0.23 0.22 0.20 0.15 0.18 0.21 0.20 0.20 0.21 0.22 0.25 0.25 0.25 0.26 0.25 0.24 0.24 0.26 0.26 0.27 0.25 0.23 0.22 0.22
0.02 0.03 0.05 0.09 0.13 0.17 0.19 0.22 0.28 0.33 0.33 0.35 0.36 0.37 0.35 0.36 0.32 0.30 0.28 0.25 0.24 0.18 0.18 0.21 0.21 0.20 0.20 0.19 0.18 0.18 0.18 0.19 0.18 0.17 0.18 0.19 0.19 0.18 0.17 0.16 0.16 0.15 0.16
0.00 0.00 0.00 0.00 0.00 0.00 0.01 0.02 0.03 0.04 0.05 0.07 0.07 0.09 0.11 0.12 0.13 0.13 0.13 0.11 0.13 0.13 0.16 0.17 0.19 0.18 0.17 0.16 0.15 0.14 0.14 0.13 0.12 0.12 0.12 0.13 0.12 0.12 0.12 0.11 0.11 0.11 0.10
0.00 0.00 0.00 0.00 0.00 0.00 0.00 0.00 0.00 0.00 0.00 0.01 0.00 0.00 0.00 0.00 0.00 0.00 0.00 0.00 0.00 0.01 0.00 0.01 0.01 0.01 0.01 0.01 0.01 0.01 0.01 0.01 0.01 0.01 0.02 0.02 0.02 0.02 0.02 0.02 0.02 0.01 0.01
0.00 0.00 0.00 0.00 0.00 0.00 0.00 0.00 0.00 0.00 0.00 0.00 0.00 0.00 0.00 0.00 0.00 0.00 0.00 0.00 0.01 0.01 0.01 0.00 0.00 0.00 0.00 0.00 0.00 0.01 0.00 0.00 0.00 0.00 0.00 0.01 0.01 0.00 0.00 0.00 0.00 0.00 0.00
0.00 0.00 0.00 0.00 0.00 0.00 0.00 0.00 0.00 0.00 0.00 0.00 0.01 0.00 0.00 0.00 0.00 0.00 0.00 0.01 0.01 0.01 0.01 0.00 0.01 0.01 0.00 0.00 0.00 0.00 0.00 0.01 0.00 0.00 0.00 0.00 0.00 0.00 0.00 0.00 0.00 0.00 0.00
0.00 0.00 0.00 0.00 0.00 0.00 0.00 0.00 0.00 0.00 0.00 0.00 0.00 0.00 0.00 0.01 0.00 0.01 0.01 0.01 0.01 0.01 0.01 0.01 0.01 0.00 0.00 0.01 0.00 0.00 0.00 0.01 0.01 0.01 0.00 0.00 0.00 0.00 0.00 0.00 0.00 0.00 0.00
0.00 0.00 0.00 0.00 0.00 0.00 0.00 0.01 0.01 0.01 0.01 0.01 0.01 0.01 0.01 0.01 0.01 0.01 0.01 0.01 0.01 0.01 0.01 0.00 0.00 0.00 0.00 0.01 0.00 0.00 0.00 0.00 0.00 0.00 0.01 0.00 0.00 0.00 0.00 0.00 0.00 0.00 0.00
0.00 0.00 0.00 0.00 0.01 0.00 0.02 0.02 0.01 0.01 0.01 0.02 0.02 0.02 0.01 0.01 0.01 0.01 0.01 0.01 0.01 0.01 0.01 0.01 0.01 0.00 0.00 0.00 0.00 0.00 0.00 0.00 0.00 0.00 0.01 0.00 0.00 0.00 0.00 0.00 0.00 0.00 0.00
0.01 0.01 0.01 0.01 0.01 0.01 0.02 0.02 0.02 0.01 0.01 0.02 0.02 0.02 0.02 0.02 0.01 0.02 0.02 0.01 0.01 0.01 0.01 0.01 0.01 0.01 0.00 0.00 0.00 0.00 0.00 0.00 0.00 0.00 0.00 0.00 0.00 0.00 0.00 0.00 0.00 0.00 0.00
0.01 0.00 0.01 0.01 0.01 0.01 0.01 0.02 0.02 0.02 0.01 0.02 0.03 0.03 0.03 0.02 0.02 0.02 0.01 0.01 0.01 0.01 0.01 0.01 0.01 0.00 0.00 0.01 0.00 0.00 0.00 0.00 0.00 0.00 0.00 0.00 0.01 0.00 0.00 0.00 0.00 0.00 0.00

GFSGL_prec_precacc24_120.txt.gz
Total_Precipitation_Accumulation
0.49 0.44 0.35 0.27 0.27 0.30 0.28 0.24 0.21 0.32 0.31 0.21 0.28 0.54 0.54 0.53 0.53 0.59 0.57 0.57 0.62 0.52 0.53 0.46 0.31 0.25 0.23 0.20 0.26 0.23 0.15 0.15 0.12 0.03 0.10 0.09 0.10 0.08 0.07 0.07 0.09 0.07 0.02
0.58 0.51 0.51 0.47 0.36 0.39 0.53 0.52 0.50 0.50 0.50 0.44 0.43 0.39 0.44 0.48 0.50 0.59 0.65 0.67 0.68 0.71 0.61 0.56 0.50 0.46 0.41 0.29 0.33 0.32 0.25 0.20 0.16 0.07 0.05 0.06 0.06 0.10 0.08 0.06 0.07 0.07 0.08
0.79 0.71 0.81 0.86 0.66 0.57 0.67 0.70 0.70 0.85 0.93 0.97 1.06 0.99 0.75 0.57 0.58 0.59 0.71 0.67 0.70 0.75 0.72 0.72 0.59 0.58 0.61 0.48 0.37 0.33 0.28 0.20 0.18 0.18 0.13 0.10 0.07 0.08 0.16 0.16 0.09 0.11 0.10
0.99 0.74 0.76 0.87 0.86 0.81 0.72 0.63 0.67 0.70 0.76 0.86 0.74 0.62 0.55 0.47 0.52 0.64 0.61 0.71 0.64 0.72 0.73 0.79 0.80 0.73 0.57 0.49 0.42 0.34 0.31 0.32 0.27 0.21 0.20 0.19 0.16 0.11 0.13 0.16 0.21 0.23 0.23
1.22 1.06 0.82 0.69 0.68 0.75 0.73 0.58 0.49 0.63 0.67 0.55 0.46 0.52 0.53 0.58 0.63 0.66 0.75 0.85 0.85 0.76 0.65 0.73 0.74 0.79 0.77 0.60 0.50 0.50 0.44 0.44 0.43 0.42 0.37 0.27 0.22 0.18 0.16 0.12 0.13 0.16 0.16
1.20 1.43 0.90 1.16 0.81 0.46 0.57 0.60 0.55 0.54 0.47 0.42 0.41 0.42 0.49 0.53 0.80 0.77 0.79 0.96 0.94 0.91 0.86 0.75 0.90 0.99 0.94 0.95 0.69 0.53 0.49 0.47 0.44 0.41 0.40 0.34 0.19 0.15 0.17 0.26 0.34 0.33 0.28
0.77 1.64 1.63 1.62 2.26 1.35 0.65 0.81 0.56 0.57 0.49 0.49 0.47 0.39 0.34 0.41 0.72 0.66 0.78 0.78 1.07 1.00 1.09 0.99 0.88 0.91 0.97 0.94 1.03 0.93 0.89 0.86 0.68 0.52 0.49 0.37 0.30 0.24 0.29 0.44 0.48 0.38 0.30
0.24 0.59 1.24 1.26 1.82 2.50 1.72 1.42 1.35 1.00 0.80 0.54 0.50 0.47 0.39 0.42 0.52 0.64 0.82 0.78 0.75 0.85 0.90 0.96 0.98 0.88 0.82 0.83 0.89 0.97 0.96 0.94 0.92 0.83 0.72 0.64 0.61 0.55 0.63 0.63 0.65 0.76 0.83
0.16 0.23 0.36 0.76 1.05 1.33 1.80 1.96 1.83 1.72 1.49 1.30 0.91 0.80 0.84 0.68 0.59 0.55 0.62 0.57 0.66 0.72 0.77 0.90 1.03 1.06 1.18 1.17 0.98 1.07 1.06 1.00 1.13 1.16 1.15 1.08 1.01 1.04 1.03 0.98 1.29 1.13 1.09
0.28 0.24 0.20 0.25 0.38 0.56 0.88 1.13 1.25 1.22 1.28 1.24 1.16 0.97 0.95 0.91 0.95 0.83 0.64 0.34 0.37 0.44 0.50 0.59 0.81 0.85 1.04 1.08 0.98 0.94 0.98 1.10 1.03 1.07 1.14 1.10 1.15 1.24 1.43 1.42 1.26 1.07 0.94
0.48 0.39 0.34 0.34 0.35 0.41 0.47 0.53 0.54 0.57 0.56 0.58 0.68 0.67 0.59 0.57 0.67 0.71 0.75 0.62 0.59 0.45 0.38 0.36 0.46 0.64 0.65 0.83 0.96 0.91 0.98 0.93 0.95 0.92 0.92 0.93 0.91 0.91 0.99 1.09 1.13 1.13 1.05
0.65 0.69 0.64 0.54 0.56 0.57 0.54 0.53 0.51 0.50 0.47 0.44 0.40 0.37 0.35 0.38 0.47 0.41 0.41 0.43 0.52 0.43 0.54 0.49 0.51 0.44 0.41 0.48 0.58 0.80 0.76 0.66 0.57 0.61 0.63 0.64 0.64 0.68 0.76 0.84 0.92 0.97 1.00
0.54 0.69 0.81 0.82 0.72 0.66 0.66 0.69 0.62 0.52 0.47 0.48 0.44 0.43 0.47 0.45 0.48 0.48 0.42 0.42 0.38 0.28 0.40 0.55 0.52 0.39 0.35 0.34 0.39 0.38 0.34 0.28 0.31 0.35 0.41 0.50 0.55 0.59 0.55 0.55 0.59 0.66 0.73
0.29 0.40 0.53 0.62 0.68 0.68 0.64 0.70 0.75 0.74 0.70 0.70 0.67 0.66 0.62 0.59 0.58 0.54 0.53 0.53 0.50 0.44 0.45 0.39 0.32 0.28 0.26 0.34 0.40 0.41 0.39 0.38 0.33 0.31 0.31 0.31 0.27 0.25 0.23 0.24 0.28 0.36 0.39
0.17 0.21 0.25 0.31 0.40 0.47 0.48 0.51 0.51 0.63 0.59 0.56 0.59 0.58 0.54 0.57 0.65 0.54 0.46 0.43 0.42 0.44 0.38 0.31 0.25 0.21 0.20 0.22 0.22 0.23 0.24 0.26 0.27 0.31 0.30 0.29 0.26 0.21 0.20 0.18 0.19 0.22 0.27
0.04 0.08 0.13 0.18 0.21 0.25 0.29 0.34 0.36 0.40 0.38 0.38 0.38 0.35 0.38 0.41 0.35 0.29 0.25 0.23 0.22 0.20 0.15 0.18 0.21 0.20 0.20 0.21 0.22 0.25 0.25 0.25 0.27 0.25 0.24 0.25 0.26 0.27 0.27 0.26 0.24 0.23 0.23
0.00 0.00 0.00 0.01 0.04 0.08 0.12 0.14 0.18 0.22 0.23 0.26 0.29 0.32 0.32 0.34 0.31 0.29 0.28 0.25 0.24 0.18 0.18 0.20 0.21 0.20 0.20 0.19 0.19 0.18 0.19 0.20 0.19 0.18 0.18 0.20 0.20 0.18 0.17 0.17 0.16 0.16 0.17
0.00 0.00 0.00 0.00 0.00 0.00 0.00 0.01 0.01 0.02 0.03 0.05 0.06 0.07 0.09 0.10 0.11 0.12 0.12 0.11 0.13 0.13 0.16 0.17 0.19 0.18 0.17 0.16 0.15 0.15 0.14 0.13 0.12 0.12 0.13 0.13 0.13 0.13 0.12 0.12 0.12 0.12 0.11
0.00 0.00 0.00 0.00 0.00 0.00 0.00 0.00 0.00 0.00 0.00 0.00 0.00 0.00 0.00 0.00 0.00 0.00 0.00 0.00 0.01 0.01 0.00 0.01 0.01 0.01 0.01 0.01 0.02 0.01 0.02 0.02 0.01 0.02 0.02 0.02 0.03 0.02 0.03 0.03 0.03 0.02 0.02
0.00 0.00 0.00 0.00 0.00 0.00 0.00 0.00 0.00 0.00 0.00 0.00 0.00 0.00 0.00 0.00 0.00 0.00 0.00 0.01 0.01 0.01 0.01 0.01 0.01 0.01 0.00 0.00 0.00 0.01 0.00 0.00 0.00 0.00 0.01 0.01 0.01 0.00 0.00 0.00 0.00 0.00 0.00
0.00 0.00 0.00 0.00 0.00 0.00 0.00 0.00 0.00 0.00 0.00 0.00 0.01 0.00 0.00 0.00 0.00 0.00 0.00 0.01 0.01 0.01 0.01 0.01 0.01 0.01 0.00 0.00 0.00 0.00 0.00 0.01 0.00 0.00 0.01 0.00 0.00 0.00 0.00 0.00 0.00 0.00 0.00
0.00 0.00 0.00 0.00 0.00 0.00 0.00 0.00 0.00 0.01 0.00 0.01 0.01 0.00 0.00 0.01 0.01 0.01 0.01 0.01 0.01 0.01 0.01 0.01 0.01 0.01 0.01 0.01 0.01 0.01 0.00 0.01 0.01 0.01 0.00 0.01 0.00 0.00 0.00 0.00 0.00 0.00 0.00
0.00 0.00 0.00 0.00 0.00 0.00 0.00 0.01 0.01 0.01 0.01 0.01 0.01 0.01 0.01 0.02 0.02 0.02 0.02 0.02 0.01 0.01 0.01 0.01 0.01 0.00 0.00 0.00 0.01 0.00 0.00 0.00 0.01 0.01 0.01 0.01 0.01 0.00 0.00 0.00 0.00 0.00 0.00
0.00 0.00 0.00 0.00 0.01 0.01 0.02 0.02 0.02 0.02 0.02 0.02 0.03 0.02 0.02 0.02 0.02 0.02 0.02 0.02 0.02 0.01 0.01 0.01 0.01 0.01 0.00 0.00 0.01 0.00 0.00 0.00 0.00 0.00 0.01 0.01 0.00 0.00 0.00 0.00 0.00 0.00 0.00
0.01 0.01 0.01 0.01 0.01 0.01 0.02 0.02 0.02 0.02 0.02 0.03 0.03 0.03 0.03 0.03 0.02 0.02 0.03 0.02 0.01 0.01 0.01 0.01 0.01 0.01 0.00 0.00 0.00 0.00 0.00 0.00 0.00 0.00 0.00 0.01 0.00 0.01 0.00 0.00 0.00 0.00 0.00
0.01 0.01 0.01 0.01 0.01 0.02 0.02 0.02 0.02 0.02 0.02 0.03 0.03 0.04 0.04 0.03 0.03 0.03 0.02 0.02 0.02 0.01 0.01 0.02 0.01 0.01 0.01 0.01 0.01 0.00 0.00 0.00 0.00 0.00 0.00 0.01 0.00 0.00 0.00 0.00 0.00 0.00 0.00

GFSGL_prec_precacc24_123.txt.gz
Total_Precipitation_Accumulation
0.47 0.44 0.33 0.24 0.25 0.27 0.27 0.25 0.22 0.32 0.31 0.21 0.28 0.54 0.45 0.57 0.57 0.63 0.76 0.76 0.70 0.52 0.46 0.36 0.26 0.24 0.23 0.24 0.33 0.33 0.28 0.26 0.20 0.08 0.18 0.23 0.15 0.07 0.07 0.07 0.05 0.06 0.02
0.52 0.47 0.47 0.41 0.34 0.39 0.53 0.54 0.52 0.52 0.52 0.45 0.47 0.43 0.38 0.38 0.58 0.57 0.59 0.73 0.74 0.66 0.51 0.48 0.45 0.45 0.42 0.32 0.47 0.47 0.37 0.37 0.33 0.16 0.15 0.19 0.18 0.13 0.08 0.06 0.07 0.07 0.08
0.81 0.75 0.81 0.82 0.67 0.59 0.70 0.74 0.75 0.91 0.96 1.00 1.09 1.05 0.79 0.53 0.53 0.59 0.67 0.59 0.61 0.69 0.63 0.66 0.56 0.59 0.64 0.51 0.44 0.53 0.44 0.34 0.29 0.28 0.19 0.19 0.15 0.11 0.18 0.16 0.10 0.11 0.10
1.02 0.81 0.83 0.90 0.89 0.87 0.78 0.68 0.71 0.74 0.80 0.89 0.77 0.65 0.58 0.53 0.47 0.47 0.57 0.76 0.67 0.74 0.75 0.81 0.88 0.83 0.67 0.55 0.45 0.37 0.37 0.37 0.29 0.24 0.24 0.21 0.19 0.13 0.16 0.17 0.23 0.23 0.23
1.22 1.12 1.10 0.93 0.81 0.85 0.79 0.60 0.49 0.63 0.70 0.62 0.49 0.62 0.62 0.62 0.69 0.66 0.79 0.94 0.97 0.84 0.75 0.79 0.78 0.84 0.83 0.67 0.57 0.56 0.48 0.47 0.45 0.44 0.38 0.27 0.22 0.19 0.16 0.12 0.14 0.16 0.16
1.23 1.51 1.05 1.39 1.23 0.67 0.64 0.63 0.65 0.62 0.65 0.78 0.53 0.53 0.74 0.82 1.17 1.27 1.13 1.13 1.02 0.99 0.94 0.85 0.89 0.94 0.94 1.02 0.77 0.59 0.53 0.49 0.45 0.42 0.41 0.35 0.19 0.14 0.16 0.25 0.33 0.32 0.25
0.73 1.64 1.69 1.72 2.43 1.59 0.78 0.86 0.74 0.83 0.74 0.69 0.72 0.63 0.61 0.66 1.00 1.16 1.26 1.09 1.18 1.08 1.11 1.04 0.90 0.89 1.00 1.02 1.16 1.06 1.03 0.98 0.76 0.57 0.51 0.37 0.29 0.23 0.27 0.40 0.43 0.33 0.26
0.15 0.55 1.22 1.25 1.84 2.59 1.88 1.55 1.52 1.10 0.93 0.59 0.59 0.58 0.54 0.79 0.78 1.19 1.47 1.31 0.99 1.00 0.99 1.03 1.12 1.01 0.89 0.92 0.97 1.04 1.10 1.12 1.07 0.92 0.75 0.63 0.58 0.50 0.56 0.55 0.58 0.69 0.78
0.07 0.17 0.32 0.72 1.02 1.32 1.80 1.99 1.91 1.85 1.59 1.40 0.98 0.89 0.93 0.83 0.73 0.66 0.82 0.96 1.26 1.36 1.25 1.20 1.29 1.36 1.42 1.38 1.21 1.23 1.17 1.06 1.14 1.17 1.12 1.01 0.93 0.97 0.98 0.95 1.26 1.09 1.05
0.14 0.16 0.16 0.20 0.33 0.53 0.84 1.09 1.22 1.19 1.26 1.24 1.20 1.05 1.04 1.05 1.16 1.04 0.83 0.56 0.58 0.71 0.89 0.96 1.09 1.09 1.16 1.15 1.07 1.05 1.07 1.16 1.06 1.06 1.10 1.05 1.09 1.18 1.38 1.39 1.24 1.06 0.94
0.21 0.20 0.21 0.27 0.29 0.36 0.42 0.47 0.48 0.52 0.52 0.55 0.64 0.66 0.59 0.58 0.67 0.71 0.77 0.69 0.66 0.51 0.44 0.42 0.49 0.64 0.65 0.81 0.94 0.91 0.99 0.93 0.94 0.91 0.92 0.93 0.90 0.92 1.00 1.10 1.14 1.14 1.05
0.23 0.28 0.33 0.34 0.44 0.50 0.47 0.48 0.46 0.46 0.44 0.42 0.37 0.35 0.33 0.35 0.42 0.37 0.36 0.38 0.46 0.39 0.46 0.40 0.41 0.33 0.29 0.36 0.47 0.69 0.69 0.63 0.58 0.65 0.69 0.73 0.71 0.74 0.80 0.87 0.93 0.97 1.00
0.14 0.19 0.31 0.44 0.44 0.45 0.50 0.55 0.49 0.42 0.39 0.40 0.37 0.35 0.35 0.31 0.32 0.32 0.29 0.25 0.21 0.17 0.27 0.41 0.39 0.29 0.28 0.30 0.36 0.36 0.31 0.26 0.30 0.36 0.44 0.52 0.58 0.62 0.57 0.57 0.60 0.67 0.73
0.05 0.08 0.15 0.24 0.36 0.42 0.40 0.40 0.39 0.41 0.40 0.38 0.36 0.37 0.39 0.36 0.33 0.32 0.32 0.33 0.33 0.28 0.32 0.31 0.28 0.26 0.26 0.34 0.40 0.41 0.39 0.38 0.33 0.31 0.32 0.31 0.27 0.25 0.23 0.24 0.28 0.36 0.39
0.02 0.05 0.06 0.09 0.15 0.24 0.31 0.36 0.35 0.42 0.37 0.35 0.38 0.35 0.35 0.40 0.49 0.41 0.37 0.37 0.39 0.42 0.36 0.30 0.25 0.21 0.20 0.22 0.22 0.23 0.24 0.26 0.27 0.31 0.30 0.29 0.26 0.21 0.20 0.18 0.19 0.22 0.27
0.00 0.01 0.02 0.04 0.06 0.08 0.13 0.18 0.22 0.26 0.25 0.26 0.27 0.27 0.30 0.33 0.28 0.25 0.23 0.22 0.21 0.20 0.15 0.18 0.21 0.20 0.20 0.21 0.22 0.25 0.25 0.25 0.27 0.25 0.24 0.25 0.26 0.27 0.27 0.26 0.24 0.23 0.23
0.00 0.00 0.00 0.00 0.01 0.02 0.02 0.04 0.06 0.09 0.11 0.14 0.16 0.19 0.20 0.22 0.21 0.21 0.21 0.21 0.22 0.17 0.17 0.20 0.20 0.20 0.20 0.19 0.19 0.18 0.19 0.20 0.19 0.18 0.19 0.20 0.20 0.18 0.17 0.17 0.16 0.16 0.17
0.00 0.00 0.00 0.00 0.00 0.00 0.00 0.00 0.00 0.00 0.01 0.02 0.03 0.04 0.06 0.07 0.07 0.08 0.08 0.07 0.09 0.10 0.14 0.16 0.18 0.17 0.17 0.15 0.15 0.15 0.14 0.13 0.12 0.12 0.13 0.13 0.14 0.14 0.12 0.12 0.12 0.12 0.12
0.00 0.00 0.00 0.00 0.00 0.00 0.00 0.00 0.00 0.00 0.00 0.00 0.00 0.00 0.00 0.00 0.00 0.00 0.00 0.00 0.01 0.01 0.00 0.01 0.01 0.01 0.01 0.01 0.02 0.01 0.02 0.02 0.01 0.02 0.02 0.02 0.03 0.03 0.03 0.03 0.03 0.02 0.03
0.00 0.00 0.00 0.00 0.00 0.00 0.00 0.00 0.00 0.00 0.00 0.00 0.00 0.00 0.00 0.00 0.00 0.00 0.00 0.01 0.01 0.01 0.01 0.01 0.01 0.01 0.00 0.00 0.00 0.01 0.00 0.00 0.00 0.00 0.01 0.01 0.01 0.00 0.00 0.00 0.00 0.00 0.00
0.00 0.00 0.00 0.00 0.00 0.00 0.00 0.00 0.00 0.00 0.00 0.00 0.01 0.00 0.00 0.00 0.00 0.00 0.00 0.01 0.01 0.01 0.01 0.01 0.01 0.01 0.00 0.00 0.00 0.00 0.00 0.01 0.00 0.00 0.01 0.01 0.01 0.01 0.01 0.00 0.00 0.00 0.00
0.00 0.00 0.00 0.00 0.00 0.00 0.00 0.00 0.00 0.01 0.00 0.01 0.01 0.00 0.00 0.01 0.01 0.01 0.01 0.01 0.01 0.01 0.01 0.01 0.01 0.01 0.01 0.01 0.01 0.01 0.00 0.01 0.01 0.01 0.01 0.01 0.01 0.01 0.01 0.00 0.00 0.00 0.00
0.00 0.00 0.00 0.00 0.00 0.00 0.00 0.01 0.01 0.01 0.01 0.01 0.01 0.01 0.01 0.02 0.02 0.02 0.02 0.02 0.01 0.01 0.01 0.01 0.01 0.00 0.00 0.00 0.01 0.00 0.00 0.00 0.00 0.01 0.01 0.01 0.01 0.00 0.01 0.00 0.00 0.00 0.00
0.00 0.00 0.00 0.00 0.01 0.01 0.02 0.01 0.02 0.02 0.02 0.02 0.03 0.03 0.02 0.02 0.02 0.02 0.03 0.02 0.01 0.01 0.01 0.01 0.01 0.01 0.00 0.00 0.01 0.00 0.00 0.00 0.00 0.00 0.01 0.02 0.01 0.00 0.00 0.00 0.00 0.00 0.00
0.01 0.01 0.01 0.01 0.01 0.01 0.02 0.02 0.02 0.02 0.02 0.03 0.03 0.03 0.04 0.03 0.02 0.03 0.04 0.03 0.02 0.02 0.01 0.01 0.01 0.01 0.00 0.00 0.00 0.00 0.00 0.00 0.00 0.00 0.00 0.01 0.00 0.01 0.00 0.00 0.00 0.00 0.00
0.01 0.01 0.01 0.01 0.01 0.02 0.02 0.02 0.02 0.02 0.02 0.03 0.03 0.04 0.04 0.03 0.03 0.04 0.03 0.03 0.03 0.03 0.02 0.02 0.02 0.01 0.01 0.01 0.01 0.00 0.00 0.00 0.00 0.00 0.00 0.01 0.00 0.00 0.00 0.00 0.00 0.01 0.00

GFSGL_prec_precacc24_126.txt.gz
Total_Precipitation_Accumulation
0.35 0.37 0.31 0.25 0.26 0.26 0.25 0.22 0.21 0.33 0.31 0.21 0.28 0.54 0.44 0.56 0.53 0.47 0.51 0.47 0.48 0.51 0.51 0.41 0.27 0.27 0.43 0.57 0.46 0.35 0.40 0.38 0.30 0.09 0.18 0.25 0.17 0.09 0.09 0.10 0.06 0.05 0.03
0.45 0.41 0.44 0.41 0.33 0.36 0.47 0.51 0.52 0.52 0.52 0.45 0.47 0.44 0.39 0.37 0.53 0.43 0.33 0.42 0.53 0.57 0.67 0.87 0.80 0.67 0.60 0.49 0.58 0.55 0.47 0.52 0.46 0.18 0.17 0.20 0.19 0.14 0.11 0.11 0.10 0.08 0.08
0.78 0.73 0.80 0.82 0.65 0.53 0.62 0.73 0.76 0.92 0.97 1.02 1.11 1.08 0.81 0.52 0.45 0.46 0.43 0.40 0.43 0.58 0.55 0.63 0.62 0.73 0.82 0.65 0.57 0.59 0.55 0.43 0.41 0.31 0.20 0.19 0.15 0.13 0.21 0.19 0.13 0.13 0.10
0.99 0.80 0.85 0.99 0.96 0.88 0.78 0.71 0.74 0.77 0.83 0.93 0.81 0.69 0.61 0.53 0.37 0.31 0.41 0.52 0.48 0.65 0.67 0.71 0.78 0.75 0.63 0.58 0.51 0.41 0.42 0.43 0.34 0.30 0.29 0.22 0.20 0.16 0.18 0.20 0.24 0.24 0.23
1.20 1.13 1.18 1.05 0.95 0.95 0.85 0.68 0.57 0.71 0.76 0.67 0.53 0.64 0.62 0.56 0.59 0.48 0.58 0.73 0.75 0.64 0.58 0.61 0.62 0.73 0.72 0.62 0.57 0.58 0.52 0.51 0.52 0.49 0.43 0.30 0.24 0.20 0.18 0.13 0.14 0.16 0.16
1.19 1.51 1.06 1.43 1.37 0.87 0.85 0.77 0.78 0.75 0.77 0.95 0.66 0.58 0.75 0.80 1.05 1.14 0.93 0.92 0.88 0.81 0.73 0.68 0.75 0.83 0.82 0.94 0.80 0.71 0.63 0.56 0.50 0.45 0.43 0.36 0.19 0.14 0.16 0.25 0.33 0.32 0.24
0.66 1.60 1.64 1.69 2.44 1.66 0.89 0.94 0.83 1.04 0.97 0.86 0.96 0.85 0.81 0.85 1.08 1.21 1.30 1.10 1.15 1.21 1.09 0.94 0.87 1.00 1.11 1.04 1.24 1.17 1.13 1.09 0.85 0.62 0.54 0.40 0.32 0.26 0.28 0.40 0.43 0.32 0.24
0.11 0.49 1.15 1.19 1.80 2.54 1.87 1.55 1.53 1.09 0.92 0.67 0.74 0.80 0.80 1.26 1.21 1.54 1.70 1.58 1.24 1.18 1.26 1.23 1.28 1.18 1.12 1.23 1.30 1.29 1.27 1.28 1.18 1.04 0.85 0.71 0.64 0.54 0.58 0.56 0.58 0.66 0.74
0.03 0.10 0.22 0.62 0.95 1.26 1.74 1.97 1.89 1.85 1.58 1.36 0.93 0.85 0.91 0.86 0.75 0.77 0.91 1.26 1.60 1.75 1.60 1.45 1.41 1.46 1.54 1.57 1.54 1.58 1.41 1.33 1.43 1.36 1.27 1.12 1.00 1.03 1.00 0.94 1.23 1.05 1.00
0.07 0.05 0.05 0.07 0.24 0.47 0.80 1.06 1.19 1.17 1.25 1.23 1.18 1.03 0.99 1.03 1.11 1.01 0.80 0.57 0.60 0.74 0.96 1.15 1.26 1.28 1.34 1.37 1.29 1.29 1.35 1.35 1.20 1.20 1.21 1.13 1.15 1.22 1.39 1.39 1.22 1.02 0.89
0.05 0.07 0.06 0.08 0.12 0.27 0.38 0.44 0.45 0.50 0.51 0.52 0.62 0.64 0.57 0.55 0.62 0.64 0.68 0.63 0.60 0.49 0.43 0.42 0.48 0.62 0.68 0.87 0.99 1.00 1.06 1.00 1.00 0.97 0.96 0.96 0.93 0.93 1.01 1.11 1.13 1.12 1.03
0.01 0.03 0.09 0.10 0.14 0.19 0.26 0.35 0.37 0.40 0.40 0.39 0.35 0.32 0.31 0.32 0.36 0.32 0.31 0.32 0.37 0.32 0.40 0.37 0.36 0.29 0.26 0.32 0.41 0.60 0.60 0.58 0.55 0.61 0.64 0.67 0.67 0.72 0.81 0.88 0.95 1.00 1.02
0.00 0.01 0.05 0.10 0.13 0.16 0.22 0.30 0.31 0.29 0.29 0.31 0.30 0.31 0.31 0.29 0.27 0.27 0.25 0.22 0.18 0.15 0.22 0.31 0.28 0.20 0.18 0.17 0.22 0.23 0.20 0.17 0.21 0.28 0.38 0.48 0.56 0.61 0.57 0.57 0.61 0.68 0.74
0.00 0.00 0.01 0.04 0.08 0.12 0.13 0.15 0.19 0.24 0.26 0.26 0.27 0.28 0.28 0.26 0.23 0.22 0.21 0.21 0.19 0.16 0.17 0.16 0.14 0.13 0.14 0.22 0.27 0.29 0.29 0.31 0.30 0.31 0.32 0.31 0.27 0.25 0.23 0.24 0.28 0.36 0.39
0.00 0.00 0.00 0.00 0.01 0.04 0.10 0.15 0.16 0.23 0.20 0.20 0.22 0.22 0.21 0.25 0.32 0.26 0.23 0.23 0.23 0.24 0.22 0.19 0.16 0.14 0.14 0.18 0.21 0.22 0.24 0.26 0.27 0.31 0.30 0.30 0.26 0.21 0.20 0.18 0.19 0.22 0.27
0.00 0.00 0.00 0.00 0.00 0.00 0.01 0.03 0.07 0.11 0.12 0.13 0.14 0.14 0.16 0.20 0.17 0.16 0.15 0.16 0.17 0.17 0.13 0.15 0.18 0.19 0.19 0.20 0.22 0.25 0.25 0.25 0.27 0.25 0.25 0.25 0.27 0.27 0.28 0.26 0.24 0.23 0.24
0.00 0.00 0.00 0.00 0.00 0.00 0.00 0.00 0.00 0.01 0.02 0.04 0.06 0.09 0.10 0.11 0.10 0.10 0.11 0.11 0.12 0.10 0.10 0.13 0.14 0.15 0.16 0.17 0.18 0.18 0.19 0.19 0.19 0.18 0.18 0.20 0.21 0.19 0.18 0.17 0.16 0.16 0.17
0.00 0.00 0.00 0.00 0.00 0.00 0.00 0.00 0.00 0.00 0.00 0.00 0.00 0.01 0.02 0.03 0.03 0.04 0.04 0.03 0.04 0.04 0.06 0.08 0.09 0.09 0.09 0.09 0.10 0.11 0.12 0.11 0.11 0.12 0.12 0.14 0.14 0.14 0.13 0.13 0.12 0.12 0.12
0.00 0.00 0.00 0.00 0.00 0.00 0.00 0.00 0.00 0.00 0.00 0.00 0.00 0.00 0.00 0.00 0.00 0.00 0.00 0.00 0.01 0.01 0.00 0.00 0.01 0.01 0.00 0.00 0.01 0.01 0.02 0.02 0.01 0.02 0.02 0.03 0.04 0.04 0.03 0.03 0.03 0.02 0.03
0.00 0.00 0.00 0.00 0.00 0.00 0.00 0.00 0.00 0.00 0.00 0.00 0.00 0.00 0.00 0.00 0.00 0.00 0.00 0.01 0.01 0.01 0.01 0.01 0.01 0.01 0.00 0.00 0.01 0.01 0.00 0.00 0.00 0.00 0.01 0.01 0.01 0.01 0.01 0.01 0.00 0.00 0.00
0.00 0.00 0.00 0.00 0.00 0.00 0.00 0.00 0.00 0.00 0.00 0.00 0.00 0.00 0.00 0.00 0.00 0.00 0.00 0.01 0.01 0.01 0.01 0.01 0.01 0.01 0.00 0.00 0.00 0.00 0.00 0.01 0.00 0.00 0.01 0.01 0.01 0.01 0.01 0.00 0.00 0.00 0.00
0.00 0.00 0.00 0.00 0.00 0.00 0.00 0.00 0.00 0.01 0.01 0.01 0.01 0.00 0.00 0.01 0.01 0.01 0.01 0.01 0.01 0.01 0.01 0.01 0.01 0.00 0.00 0.01 0.01 0.01 0.00 0.01 0.01 0.01 0.01 0.01 0.01 0.01 0.01 0.00 0.00 0.00 0.00
0.00 0.00 0.00 0.00 0.00 0.00 0.00 0.01 0.01 0.01 0.01 0.01 0.01 0.02 0.02 0.02 0.02 0.02 0.02 0.03 0.01 0.01 0.01 0.01 0.01 0.00 0.00 0.00 0.01 0.00 0.00 0.00 0.00 0.01 0.01 0.01 0.01 0.01 0.01 0.01 0.00 0.00 0.00
0.00 0.00 0.00 0.00 0.01 0.01 0.01 0.01 0.02 0.02 0.02 0.02 0.02 0.02 0.02 0.03 0.02 0.02 0.04 0.04 0.02 0.02 0.02 0.01 0.01 0.01 0.00 0.00 0.01 0.00 0.00 0.00 0.00 0.00 0.01 0.02 0.01 0.01 0.01 0.00 0.00 0.00 0.00
0.01 0.01 0.01 0.01 0.01 0.01 0.02 0.02 0.02 0.02 0.02 0.03 0.03 0.03 0.03 0.03 0.02 0.03 0.04 0.03 0.02 0.02 0.03 0.02 0.02 0.01 0.00 0.00 0.00 0.00 0.00 0.00 0.00 0.00 0.00 0.01 0.01 0.01 0.00 0.00 0.00 0.00 0.00
0.01 0.01 0.01 0.01 0.01 0.02 0.02 0.02 0.02 0.02 0.03 0.03 0.03 0.04 0.04 0.03 0.03 0.04 0.03 0.03 0.03 0.03 0.03 0.03 0.03 0.02 0.01 0.01 0.01 0.00 0.00 0.00 0.00 0.00 0.00 0.01 0.00 0.00 0.00 0.00 0.00 0.01 0.00

GFSGL_prec_precacc24_132.txt.gz
Total_Precipitation_Accumulation
0.26 0.26 0.22 0.18 0.24 0.25 0.25 0.20 0.22 0.35 0.36 0.26 0.31 0.55 0.46 0.57 0.54 0.47 0.50 0.45 0.42 0.43 0.39 0.31 0.23 0.25 0.36 0.55 0.44 0.31 0.40 0.47 0.47 0.25 0.33 0.34 0.21 0.12 0.12 0.14 0.12 0.08 0.05
0.33 0.31 0.38 0.44 0.41 0.41 0.54 0.53 0.52 0.56 0.57 0.48 0.50 0.45 0.40 0.38 0.52 0.43 0.31 0.35 0.39 0.42 0.54 0.71 0.61 0.48 0.43 0.49 0.66 0.59 0.48 0.54 0.52 0.23 0.25 0.30 0.27 0.17 0.14 0.12 0.14 0.09 0.05
0.59 0.63 0.74 0.75 0.65 0.55 0.63 0.72 0.72 0.90 0.98 1.03 1.13 1.10 0.82 0.54 0.46 0.47 0.40 0.31 0.26 0.32 0.27 0.37 0.41 0.48 0.59 0.60 0.71 0.85 0.71 0.53 0.52 0.43 0.27 0.28 0.27 0.21 0.25 0.22 0.17 0.13 0.08
0.86 0.70 0.78 0.95 1.03 0.99 0.81 0.69 0.66 0.71 0.81 0.93 0.82 0.72 0.63 0.55 0.40 0.34 0.43 0.50 0.43 0.46 0.39 0.47 0.52 0.47 0.42 0.34 0.34 0.34 0.34 0.35 0.31 0.36 0.36 0.30 0.27 0.23 0.26 0.23 0.24 0.21 0.20
1.02 0.99 1.05 1.00 0.84 0.86 0.80 0.65 0.51 0.72 0.80 0.72 0.59 0.68 0.65 0.59 0.65 0.52 0.55 0.67 0.61 0.51 0.45 0.36 0.34 0.41 0.38 0.35 0.41 0.43 0.40 0.42 0.42 0.41 0.39 0.29 0.26 0.24 0.20 0.15 0.13 0.15 0.17
0.88 1.18 0.86 1.15 1.23 0.75 0.76 0.74 0.72 0.75 0.78 0.99 0.78 0.73 0.90 0.93 1.15 1.18 0.89 0.69 0.62 0.53 0.46 0.42 0.38 0.39 0.31 0.41 0.46 0.45 0.45 0.41 0.39 0.39 0.41 0.38 0.26 0.15 0.13 0.17 0.24 0.31 0.25
0.30 1.04 1.25 1.21 2.16 1.58 0.86 0.92 0.82 1.03 0.96 0.88 1.00 0.94 0.99 1.10 1.28 1.34 1.33 0.99 0.94 0.91 0.63 0.45 0.47 0.54 0.66 0.57 0.72 0.77 0.86 0.94 0.74 0.55 0.50 0.50 0.46 0.34 0.30 0.34 0.33 0.27 0.23
0.08 0.35 0.80 0.79 1.51 2.41 1.79 1.52 1.50 1.07 0.89 0.65 0.73 0.81 0.83 1.33 1.34 1.74 1.89 1.71 1.29 1.12 1.15 0.96 0.78 0.70 0.81 0.86 0.88 0.89 0.94 1.02 1.13 1.15 0.99 0.87 0.76 0.65 0.63 0.61 0.60 0.66 0.72
0.02 0.07 0.16 0.47 0.71 1.10 1.64 1.86 1.78 1.78 1.54 1.33 0.91 0.83 0.90 0.85 0.72 0.75 0.97 1.34 1.65 1.72 1.51 1.33 1.21 1.17 1.24 1.22 1.25 1.23 1.09 1.15 1.32 1.44 1.57 1.47 1.38 1.32 1.21 1.20 1.47 1.23 1.14
0.03 0.02 0.01 0.01 0.07 0.22 0.58 0.89 1.04 1.04 1.14 1.17 1.15 1.01 0.95 0.99 1.03 0.92 0.73 0.56 0.59 0.70 0.84 0.99 1.01 0.95 0.89 0.79 0.77 0.84 0.98 1.17 1.15 1.21 1.35 1.35 1.43 1.50 1.63 1.59 1.37 1.19 1.13
0.01 0.00 0.00 0.00 0.01 0.02 0.02 0.05 0.08 0.17 0.23 0.32 0.47 0.56 0.52 0.50 0.58 0.58 0.60 0.59 0.56 0.47 0.43 0.40 0.41 0.44 0.42 0.45 0.47 0.53 0.63 0.65 0.75 0.78 0.78 0.83 0.86 0.96 1.13 1.26 1.32 1.29 1.19
0.00 0.00 0.00 0.00 0.00 0.00 0.00 0.00 0.01 0.01 0.01 0.03 0.07 0.16 0.21 0.25 0.25 0.23 0.23 0.25 0.27 0.25 0.29 0.28 0.29 0.24 0.19 0.21 0.24 0.30 0.31 0.31 0.31 0.38 0.42 0.46 0.50 0.57 0.66 0.75 0.86 0.97 1.05
0.00 0.00 0.00 0.00 0.00 0.00 0.00 0.00 0.00 0.00 0.00 0.01 0.01 0.03 0.07 0.09 0.12 0.13 0.14 0.14 0.12 0.11 0.14 0.15 0.11 0.08 0.07 0.07 0.10 0.10 0.07 0.05 0.07 0.10 0.17 0.27 0.35 0.43 0.48 0.51 0.55 0.60 0.67
0.00 0.00 0.00 0.00 0.00 0.00 0.00 0.00 0.01 0.01 0.01 0.01 0.02 0.02 0.01 0.02 0.03 0.05 0.06 0.07 0.07 0.07 0.07 0.07 0.06 0.07 0.07 0.09 0.09 0.09 0.11 0.14 0.14 0.15 0.15 0.15 0.13 0.15 0.17 0.21 0.26 0.34 0.37
0.00 0.00 0.00 0.00 0.00 0.00 0.03 0.04 0.02 0.03 0.02 0.02 0.02 0.03 0.03 0.04 0.06 0.03 0.02 0.03 0.04 0.06 0.07 0.07 0.06 0.06 0.07 0.08 0.10 0.12 0.13 0.15 0.16 0.20 0.21 0.22 0.20 0.16 0.16 0.16 0.17 0.19 0.25
0.00 0.00 0.00 0.00 0.00 0.00 0.00 0.01 0.01 0.01 0.00 0.00 0.00 0.01 0.01 0.03 0.01 0.01 0.01 0.02 0.03 0.04 0.03 0.05 0.07 0.09 0.10 0.11 0.13 0.16 0.18 0.19 0.22 0.22 0.22 0.23 0.24 0.26 0.27 0.24 0.23 0.22 0.22
0.00 0.00 0.00 0.00 0.00 0.00 0.00 0.00 0.00 0.00 0.00 0.00 0.00 0.00 0.00 0.01 0.00 0.00 0.00 0.01 0.01 0.01 0.01 0.03 0.04 0.04 0.05 0.07 0.08 0.10 0.11 0.13 0.14 0.15 0.15 0.16 0.17 0.16 0.15 0.14 0.13 0.13 0.15
0.00 0.00 0.00 0.00 0.00 0.00 0.00 0.00 0.00 0.00 0.00 0.00 0.00 0.00 0.00 0.00 0.00 0.00 0.00 0.00 0.00 0.00 0.00 0.01 0.02 0.01 0.02 0.02 0.03 0.05 0.06 0.07 0.07 0.08 0.09 0.10 0.11 0.11 0.11 0.12 0.12 0.12 0.12
0.00 0.00 0.00 0.00 0.00 0.00 0.00 0.00 0.00 0.00 0.00 0.00 0.00 0.00 0.00 0.00 0.00 0.00 0.00 0.00 0.00 0.00 0.00 0.00 0.00 0.00 0.00 0.00 0.01 0.01 0.01 0.01 0.01 0.01 0.02 0.02 0.03 0.03 0.03 0.03 0.03 0.02 0.03
0.00 0.00 0.00 0.00 0.00 0.00 0.00 0.00 0.00 0.00 0.00 0.00 0.00 0.01 0.00 0.00 0.00 0.00 0.00 0.01 0.01 0.01 0.01 0.00 0.01 0.01 0.00 0.00 0.01 0.01 0.00 0.00 0.00 0.00 0.01 0.01 0.01 0.01 0.02 0.01 0.01 0.00 0.00
0.00 0.00 0.00 0.00 0.00 0.00 0.00 0.00 0.00 0.00 0.00 0.00 0.00 0.00 0.00 0.00 0.00 0.00 0.00 0.01 0.01 0.01 0.01 0.01 0.01 0.01 0.00 0.00 0.00 0.00 0.00 0.01 0.00 0.00 0.01 0.01 0.02 0.01 0.02 0.01 0.00 0.00 0.00
0.00 0.00 0.00 0.00 0.00 0.00 0.00 0.00 0.00 0.01 0.01 0.01 0.01 0.00 0.00 0.01 0.01 0.01 0.01 0.01 0.02 0.01 0.01 0.01 0.01 0.01 0.01 0.01 0.02 0.01 0.00 0.01 0.01 0.01 0.01 0.01 0.01 0.01 0.02 0.01 0.00 0.00 0.00
0.00 0.00 0.00 0.00 0.00 0.00 0.00 0.01 0.01 0.01 0.01 0.01 0.01 0.02 0.02 0.02 0.02 0.02 0.02 0.03 0.01 0.01 0.01 0.01 0.02 0.01 0.00 0.01 0.01 0.01 0.01 0.00 0.00 0.01 0.01 0.01 0.01 0.01 0.01 0.01 0.00 0.00 0.00
0.00 0.00 0.00 0.00 0.00 0.01 0.01 0.01 0.02 0.01 0.01 0.02 0.02 0.02 0.02 0.03 0.02 0.02 0.04 0.04 0.02 0.02 0.02 0.02 0.02 0.01 0.00 0.00 0.01 0.00 0.00 0.00 0.00 0.00 0.01 0.02 0.01 0.01 0.01 0.00 0.01 0.00 0.00
0.01 0.01 0.01 0.01 0.01 0.01 0.02 0.01 0.02 0.02 0.02 0.02 0.03 0.03 0.03 0.03 0.02 0.03 0.04 0.03 0.02 0.02 0.03 0.02 0.02 0.01 0.01 0.00 0.01 0.00 0.00 0.01 0.00 0.00 0.00 0.01 0.01 0.01 0.00 0.00 0.01 0.01 0.00
0.01 0.01 0.01 0.01 0.01 0.02 0.02 0.02 0.02 0.02 0.03 0.03 0.03 0.03 0.03 0.03 0.03 0.04 0.03 0.03 0.03 0.03 0.03 0.03 0.03 0.02 0.02 0.01 0.02 0.00 0.01 0.01 0.00 0.00 0.00 0.01 0.00 0.00 0.00 0.00 0.00 0.01 0.00

GFSGL_prec_precacc24_135.txt.gz
Total_Precipitation_Accumulation
0.14 0.16 0.16 0.18 0.26 0.27 0.30 0.27 0.28 0.38 0.39 0.30 0.35 0.59 0.48 0.58 0.54 0.47 0.50 0.44 0.40 0.40 0.37 0.30 0.22 0.26 0.39 0.60 0.54 0.46 0.62 0.84 0.83 0.50 0.54 0.39 0.19 0.10 0.12 0.16 0.17 0.13 0.06
0.22 0.26 0.41 0.51 0.43 0.40 0.55 0.56 0.56 0.57 0.57 0.49 0.51 0.48 0.42 0.40 0.53 0.44 0.31 0.36 0.41 0.44 0.55 0.71 0.61 0.47 0.43 0.52 0.75 0.71 0.57 0.60 0.54 0.24 0.25 0.28 0.25 0.16 0.14 0.13 0.14 0.10 0.05
0.44 0.48 0.64 0.67 0.60 0.59 0.69 0.76 0.75 0.88 0.93 0.92 1.06 1.08 0.84 0.56 0.48 0.48 0.41 0.31 0.28 0.34 0.28 0.37 0.39 0.46 0.57 0.59 0.70 0.86 0.75 0.55 0.49 0.36 0.19 0.22 0.25 0.21 0.26 0.23 0.18 0.13 0.08
0.78 0.60 0.63 0.83 0.88 0.89 0.76 0.70 0.63 0.65 0.72 0.84 0.79 0.73 0.66 0.57 0.42 0.35 0.44 0.51 0.44 0.47 0.40 0.48 0.52 0.44 0.38 0.30 0.29 0.31 0.32 0.32 0.28 0.32 0.30 0.21 0.21 0.23 0.27 0.23 0.24 0.21 0.20
0.99 0.95 0.98 0.88 0.76 0.78 0.76 0.60 0.45 0.64 0.74 0.66 0.54 0.67 0.66 0.63 0.72 0.56 0.58 0.69 0.62 0.53 0.46 0.38 0.37 0.43 0.37 0.34 0.37 0.37 0.33 0.35 0.34 0.34 0.31 0.24 0.20 0.20 0.19 0.15 0.13 0.16 0.18
0.82 1.14 0.84 1.02 1.05 0.63 0.61 0.51 0.58 0.58 0.69 0.89 0.70 0.68 0.89 0.96 1.16 1.21 0.93 0.75 0.64 0.56 0.53 0.51 0.47 0.41 0.32 0.41 0.43 0.40 0.38 0.36 0.33 0.36 0.35 0.31 0.23 0.14 0.12 0.13 0.20 0.30 0.28
0.26 0.82 0.96 1.04 1.70 1.13 0.70 0.72 0.66 0.85 0.84 0.77 0.94 0.91 0.97 1.10 1.26 1.33 1.31 1.00 0.96 0.92 0.65 0.50 0.52 0.53 0.57 0.47 0.52 0.48 0.56 0.70 0.62 0.47 0.44 0.47 0.44 0.31 0.28 0.28 0.26 0.24 0.22
0.07 0.22 0.50 0.49 0.90 1.67 1.34 1.28 1.24 0.95 0.77 0.62 0.71 0.79 0.80 1.30 1.32 1.73 1.87 1.71 1.29 1.13 1.18 0.99 0.81 0.70 0.79 0.76 0.69 0.64 0.64 0.70 0.82 0.91 0.85 0.76 0.66 0.54 0.47 0.51 0.56 0.61 0.65
0.01 0.05 0.09 0.22 0.44 0.70 1.13 1.53 1.68 1.72 1.51 1.32 0.90 0.82 0.89 0.84 0.70 0.74 0.96 1.34 1.64 1.72 1.51 1.34 1.22 1.17 1.17 1.10 1.06 1.06 0.91 0.97 1.07 1.17 1.31 1.24 1.17 1.09 0.93 0.98 1.37 1.21 1.11
0.01 0.01 0.00 0.00 0.02 0.10 0.32 0.59 0.86 0.97 1.07 1.12 1.11 0.99 0.93 0.98 1.00 0.89 0.70 0.55 0.58 0.69 0.84 1.00 1.01 0.95 0.86 0.73 0.68 0.71 0.81 0.92 0.87 0.89 1.03 1.09 1.10 1.17 1.34 1.35 1.17 1.03 1.05
0.00 0.00 0.00 0.00 0.00 0.00 0.01 0.02 0.03 0.11 0.16 0.18 0.33 0.42 0.40 0.41 0.51 0.53 0.55 0.56 0.55 0.45 0.40 0.39 0.40 0.42 0.39 0.40 0.40 0.41 0.44 0.39 0.40 0.38 0.41 0.50 0.62 0.75 0.90 1.08 1.19 1.21 1.12
0.00 0.00 0.00 0.00 0.00 0.00 0.00 0.00 0.00 0.00 0.00 0.00 0.00 0.02 0.03 0.05 0.05 0.07 0.15 0.20 0.23 0.24 0.28 0.26 0.25 0.21 0.15 0.16 0.19 0.23 0.24 0.22 0.18 0.19 0.22 0.25 0.29 0.36 0.45 0.53 0.64 0.78 0.90
0.00 0.00 0.00 0.00 0.00 0.00 0.00 0.00 0.00 0.00 0.00 0.01 0.01 0.01 0.01 0.01 0.01 0.00 0.02 0.04 0.05 0.07 0.09 0.10 0.08 0.05 0.03 0.03 0.05 0.05 0.04 0.04 0.06 0.07 0.11 0.16 0.20 0.23 0.27 0.33 0.38 0.45 0.50
0.00 0.00 0.00 0.00 0.00 0.00 0.00 0.00 0.00 0.01 0.01 0.01 0.02 0.02 0.01 0.01 0.01 0.01 0.01 0.01 0.01 0.01 0.02 0.02 0.03 0.03 0.04 0.05 0.05 0.06 0.07 0.08 0.09 0.11 0.12 0.11 0.08 0.07 0.07 0.11 0.15 0.23 0.29
0.00 0.00 0.00 0.00 0.00 0.00 0.03 0.03 0.01 0.01 0.01 0.01 0.01 0.02 0.02 0.02 0.02 0.01 0.00 0.01 0.00 0.01 0.00 0.00 0.00 0.00 0.01 0.01 0.03 0.04 0.07 0.08 0.08 0.11 0.13 0.14 0.13 0.11 0.10 0.10 0.11 0.14 0.18
0.00 0.00 0.00 0.00 0.00 0.00 0.00 0.01 0.01 0.01 0.00 0.00 0.00 0.00 0.01 0.01 0.00 0.00 0.00 0.00 0.00 0.00 0.00 0.00 0.01 0.01 0.01 0.01 0.02 0.03 0.05 0.07 0.09 0.10 0.11 0.13 0.14 0.15 0.16 0.16 0.16 0.15 0.15
0.00 0.00 0.00 0.00 0.00 0.00 0.00 0.00 0.00 0.00 0.00 0.00 0.00 0.00 0.00 0.00 0.00 0.00 0.00 0.00 0.00 0.00 0.00 0.01 0.01 0.01 0.00 0.01 0.01 0.03 0.04 0.05 0.06 0.07 0.08 0.10 0.12 0.11 0.11 0.11 0.10 0.10 0.12
0.00 0.00 0.00 0.00 0.00 0.00 0.00 0.00 0.00 0.00 0.00 0.00 0.00 0.00 0.00 0.00 0.00 0.00 0.00 0.00 0.00 0.00 0.00 0.00 0.01 0.00 0.00 0.00 0.01 0.01 0.02 0.02 0.03 0.04 0.05 0.07 0.09 0.09 0.09 0.09 0.10 0.11 0.11
0.00 0.00 0.00 0.00 0.00 0.00 0.00 0.00 0.00 0.00 0.00 0.00 0.00 0.00 0.00 0.00 0.00 0.00 0.00 0.00 0.00 0.00 0.00 0.00 0.01 0.00 0.00 0.00 0.01 0.01 0.01 0.01 0.00 0.01 0.02 0.02 0.03 0.03 0.03 0.03 0.03 0.02 0.03
0.00 0.00 0.00 0.00 0.00 0.00 0.00 0.00 0.00 0.00 0.00 0.00 0.00 0.01 0.00 0.00 0.00 0.00 0.00 0.01 0.01 0.01 0.01 0.00 0.01 0.01 0.00 0.00 0.01 0.01 0.00 0.00 0.00 0.00 0.01 0.01 0.01 0.01 0.02 0.01 0.01 0.00 0.00
0.00 0.00 0.00 0.00 0.00 0.00 0.00 0.00 0.00 0.00 0.00 0.00 0.01 0.01 0.00 0.00 0.00 0.00 0.00 0.01 0.01 0.01 0.01 0.01 0.01 0.01 0.01 0.01 0.01 0.01 0.01 0.01 0.00 0.00 0.01 0.01 0.02 0.01 0.02 0.01 0.00 0.00 0.00
0.00 0.00 0.00 0.00 0.00 0.00 0.00 0.00 0.00 0.01 0.01 0.01 0.01 0.00 0.00 0.01 0.01 0.01 0.01 0.01 0.02 0.01 0.01 0.01 0.01 0.01 0.01 0.02 0.02 0.02 0.00 0.01 0.01 0.01 0.01 0.01 0.01 0.01 0.02 0.01 0.00 0.00 0.00
0.00 0.00 0.00 0.00 0.00 0.00 0.00 0.01 0.01 0.01 0.01 0.01 0.01 0.02 0.02 0.02 0.02 0.02 0.02 0.03 0.01 0.01 0.01 0.01 0.02 0.01 0.00 0.01 0.01 0.02 0.01 0.01 0.01 0.01 0.01 0.01 0.01 0.01 0.01 0.01 0.00 0.00 0.00
0.00 0.00 0.00 0.00 0.00 0.01 0.01 0.01 0.01 0.01 0.01 0.02 0.02 0.02 0.02 0.03 0.02 0.02 0.04 0.04 0.02 0.02 0.02 0.02 0.02 0.01 0.00 0.00 0.01 0.00 0.01 0.01 0.01 0.01 0.01 0.02 0.01 0.01 0.01 0.00 0.01 0.00 0.00
0.01 0.01 0.01 0.01 0.01 0.01 0.02 0.01 0.02 0.02 0.02 0.02 0.03 0.03 0.03 0.03 0.02 0.03 0.04 0.03 0.02 0.02 0.03 0.02 0.02 0.01 0.01 0.00 0.01 0.00 0.00 0.01 0.01 0.01 0.01 0.01 0.01 0.01 0.00 0.00 0.01 0.01 0.00
0.01 0.01 0.01 0.01 0.01 0.02 0.02 0.02 0.02 0.02 0.03 0.03 0.03 0.03 0.03 0.03 0.03 0.04 0.03 0.03 0.03 0.03 0.03 0.03 0.03 0.02 0.02 0.01 0.02 0.00 0.01 0.01 0.01 0.01 0.00 0.01 0.00 0.00 0.00 0.00 0.00 0.01 0.00

GFSGL_prec_precacc24_138.txt.gz
Total_Precipitation_Accumulation
0.05 0.06 0.10 0.17 0.25 0.26 0.29 0.27 0.27 0.34 0.38 0.32 0.38 0.62 0.48 0.55 0.54 0.46 0.47 0.39 0.38 0.42 0.38 0.31 0.21 0.25 0.39 0.61 0.65 0.70 0.82 0.91 0.91 0.60 0.66 0.59 0.48 0.35 0.22 0.17 0.16 0.12 0.06
0.15 0.14 0.30 0.42 0.38 0.35 0.52 0.53 0.53 0.54 0.57 0.53 0.54 0.49 0.42 0.34 0.46 0.37 0.28 0.35 0.39 0.43 0.54 0.69 0.60 0.46 0.42 0.50 0.75 0.75 0.78 0.85 0.76 0.52 0.55 0.45 0.33 0.25 0.19 0.15 0.15 0.12 0.07
0.40 0.37 0.48 0.54 0.53 0.50 0.64 0.72 0.70 0.82 0.91 0.90 1.01 1.03 0.76 0.49 0.44 0.46 0.40 0.31 0.28 0.34 0.27 0.35 0.37 0.43 0.54 0.56 0.67 0.86 0.81 0.67 0.65 0.65 0.57 0.48 0.38 0.27 0.22 0.16 0.16 0.13 0.12
0.75 0.52 0.49 0.64 0.72 0.75 0.63 0.55 0.50 0.51 0.59 0.74 0.74 0.75 0.71 0.58 0.43 0.37 0.46 0.52 0.45 0.47 0.41 0.49 0.52 0.43 0.37 0.29 0.26 0.28 0.30 0.34 0.36 0.47 0.42 0.34 0.35 0.37 0.36 0.26 0.20 0.18 0.23
0.93 0.88 0.92 0.77 0.63 0.62 0.58 0.47 0.36 0.57 0.67 0.60 0.50 0.64 0.64 0.65 0.79 0.63 0.65 0.73 0.64 0.55 0.49 0.40 0.40 0.45 0.39 0.35 0.35 0.33 0.27 0.30 0.31 0.33 0.32 0.25 0.25 0.26 0.22 0.16 0.12 0.18 0.29
0.49 0.93 0.78 0.87 0.83 0.53 0.47 0.41 0.51 0.52 0.63 0.85 0.66 0.64 0.84 0.93 1.14 1.20 0.94 0.78 0.67 0.57 0.55 0.53 0.49 0.48 0.38 0.44 0.45 0.40 0.35 0.31 0.30 0.31 0.33 0.30 0.23 0.14 0.11 0.14 0.19 0.28 0.27
0.19 0.49 0.76 0.89 1.26 0.85 0.45 0.43 0.51 0.75 0.73 0.67 0.81 0.77 0.85 1.02 1.21 1.29 1.29 0.99 0.96 0.92 0.66 0.51 0.53 0.55 0.58 0.50 0.55 0.50 0.50 0.52 0.47 0.39 0.38 0.44 0.43 0.30 0.24 0.19 0.20 0.25 0.27
0.04 0.09 0.21 0.25 0.66 1.24 0.81 0.86 0.88 0.66 0.54 0.47 0.53 0.62 0.69 1.22 1.23 1.66 1.85 1.71 1.29 1.13 1.18 1.00 0.81 0.71 0.79 0.76 0.69 0.63 0.61 0.65 0.70 0.71 0.62 0.60 0.55 0.48 0.39 0.37 0.37 0.46 0.47
0.00 0.00 0.01 0.03 0.14 0.39 0.72 0.95 1.23 1.28 1.17 1.06 0.78 0.71 0.83 0.82 0.69 0.72 0.94 1.32 1.63 1.71 1.51 1.33 1.22 1.17 1.17 1.10 1.06 1.04 0.85 0.88 0.96 0.95 0.95 0.94 0.91 0.82 0.67 0.66 0.89 0.87 0.79
0.00 0.00 0.00 0.00 0.00 0.01 0.08 0.22 0.35 0.57 0.78 0.87 0.96 0.89 0.83 0.90 0.92 0.83 0.67 0.54 0.55 0.67 0.83 0.99 0.99 0.94 0.86 0.73 0.68 0.71 0.81 0.88 0.81 0.80 0.84 0.82 0.78 0.76 0.84 0.90 0.85 0.80 0.81
0.00 0.00 0.00 0.00 0.00 0.00 0.00 0.00 0.01 0.02 0.05 0.09 0.16 0.21 0.27 0.30 0.40 0.45 0.49 0.52 0.50 0.42 0.37 0.36 0.38 0.40 0.39 0.40 0.39 0.40 0.43 0.37 0.36 0.32 0.30 0.30 0.33 0.40 0.51 0.68 0.82 0.86 0.87
0.00 0.00 0.00 0.00 0.00 0.00 0.00 0.00 0.00 0.00 0.00 0.00 0.00 0.01 0.01 0.02 0.02 0.02 0.05 0.09 0.12 0.17 0.22 0.22 0.20 0.18 0.14 0.13 0.16 0.19 0.20 0.19 0.17 0.16 0.15 0.14 0.13 0.12 0.15 0.20 0.32 0.48 0.61
0.00 0.00 0.00 0.00 0.00 0.00 0.00 0.00 0.00 0.00 0.00 0.00 0.00 0.00 0.00 0.00 0.00 0.00 0.00 0.00 0.00 0.01 0.01 0.01 0.02 0.02 0.02 0.02 0.02 0.02 0.02 0.03 0.04 0.05 0.07 0.08 0.07 0.07 0.06 0.09 0.12 0.17 0.22
0.00 0.00 0.00 0.00 0.00 0.00 0.00 0.00 0.00 0.00 0.00 0.00 0.01 0.01 0.00 0.00 0.01 0.01 0.00 0.00 0.00 0.00 0.00 0.00 0.00 0.00 0.00 0.00 0.01 0.02 0.02 0.03 0.04 0.06 0.07 0.07 0.05 0.04 0.03 0.05 0.06 0.07 0.08
0.00 0.00 0.00 0.00 0.00 0.00 0.03 0.03 0.01 0.00 0.00 0.00 0.00 0.01 0.01 0.01 0.01 0.00 0.00 0.00 0.00 0.00 0.00 0.00 0.00 0.00 0.00 0.00 0.00 0.00 0.01 0.01 0.02 0.03 0.04 0.05 0.05 0.04 0.04 0.05 0.05 0.07 0.10
0.00 0.00 0.00 0.00 0.00 0.00 0.00 0.01 0.01 0.01 0.00 0.00 0.00 0.00 0.00 0.01 0.00 0.00 0.00 0.00 0.00 0.00 0.00 0.00 0.00 0.00 0.01 0.01 0.01 0.01 0.00 0.01 0.01 0.01 0.02 0.04 0.05 0.05 0.05 0.05 0.06 0.06 0.07
0.00 0.00 0.00 0.00 0.00 0.00 0.00 0.00 0.00 0.00 0.00 0.00 0.00 0.00 0.00 0.00 0.00 0.00 0.00 0.00 0.00 0.00 0.00 0.00 0.00 0.00 0.00 0.00 0.01 0.01 0.02 0.01 0.01 0.01 0.02 0.03 0.04 0.03 0.04 0.04 0.05 0.05 0.06
0.00 0.00 0.00 0.00 0.00 0.00 0.00 0.00 0.00 0.00 0.00 0.00 0.00 0.00 0.00 0.00 0.00 0.00 0.00 0.00 0.00 0.00 0.00 0.00 0.01 0.00 0.00 0.00 0.00 0.01 0.01 0.01 0.01 0.01 0.02 0.03 0.04 0.04 0.04 0.04 0.05 0.06 0.07
0.00 0.00 0.00 0.00 0.00 0.00 0.00 0.00 0.00 0.00 0.00 0.00 0.00 0.00 0.00 0.00 0.00 0.00 0.00 0.00 0.00 0.00 0.00 0.00 0.01 0.00 0.00 0.00 0.01 0.01 0.01 0.01 0.00 0.00 0.01 0.01 0.02 0.03 0.02 0.03 0.03 0.01 0.02
0.00 0.00 0.00 0.00 0.00 0.00 0.00 0.00 0.00 0.00 0.00 0.00 0.00 0.01 0.00 0.00 0.00 0.00 0.00 0.00 0.00 0.00 0.00 0.00 0.01 0.01 0.01 0.01 0.01 0.01 0.01 0.01 0.00 0.01 0.01 0.01 0.01 0.02 0.02 0.01 0.01 0.00 0.00
0.00 0.00 0.00 0.00 0.00 0.00 0.00 0.00 0.00 0.00 0.00 0.00 0.00 0.01 0.00 0.00 0.00 0.00 0.00 0.01 0.01 0.01 0.01 0.01 0.01 0.01 0.01 0.01 0.01 0.01 0.01 0.01 0.01 0.01 0.01 0.01 0.02 0.02 0.02 0.01 0.00 0.00 0.00
0.00 0.00 0.00 0.00 0.00 0.00 0.00 0.00 0.00 0.01 0.00 0.00 0.01 0.00 0.00 0.00 0.00 0.00 0.00 0.01 0.02 0.01 0.01 0.01 0.01 0.01 0.01 0.02 0.03 0.02 0.01 0.01 0.01 0.01 0.01 0.02 0.01 0.01 0.02 0.01 0.01 0.00 0.00
0.00 0.00 0.00 0.00 0.00 0.00 0.00 0.00 0.00 0.00 0.00 0.01 0.01 0.01 0.01 0.02 0.02 0.01 0.02 0.03 0.01 0.01 0.01 0.01 0.01 0.01 0.00 0.01 0.02 0.02 0.02 0.02 0.02 0.01 0.02 0.02 0.02 0.01 0.02 0.01 0.01 0.01 0.01
0.00 0.00 0.00 0.00 0.00 0.01 0.01 0.01 0.01 0.01 0.01 0.01 0.01 0.01 0.02 0.03 0.02 0.02 0.03 0.04 0.02 0.01 0.01 0.02 0.02 0.01 0.00 0.00 0.01 0.01 0.01 0.01 0.02 0.01 0.02 0.03 0.02 0.01 0.01 0.00 0.01 0.00 0.01
0.01 0.01 0.01 0.01 0.01 0.01 0.01 0.01 0.01 0.01 0.02 0.02 0.02 0.02 0.02 0.02 0.02 0.02 0.03 0.02 0.02 0.02 0.02 0.02 0.02 0.01 0.01 0.00 0.01 0.00 0.01 0.01 0.01 0.01 0.01 0.02 0.01 0.01 0.00 0.00 0.01 0.01 0.01
0.01 0.01 0.01 0.01 0.01 0.01 0.01 0.01 0.02 0.02 0.02 0.03 0.02 0.03 0.03 0.03 0.03 0.03 0.02 0.02 0.03 0.03 0.02 0.03 0.02 0.02 0.01 0.01 0.02 0.01 0.01 0.01 0.02 0.01 0.01 0.01 0.01 0.00 0.01 0.01 0.01 0.01 0.01

GFSGL_prec_precacc24_141.txt.gz
Total_Precipitation_Accumulation
0.03 0.03 0.07 0.16 0.24 0.23 0.24 0.22 0.20 0.17 0.22 0.24 0.37 0.65 0.54 0.61 0.59 0.49 0.49 0.38 0.35 0.41 0.37 0.29 0.21 0.24 0.39 0.60 0.63 0.70 0.91 1.10 1.10 0.71 0.72 0.62 0.48 0.37 0.24 0.26 0.30 0.32 0.40
0.08 0.10 0.23 0.33 0.34 0.29 0.33 0.34 0.35 0.38 0.39 0.41 0.45 0.45 0.44 0.37 0.47 0.40 0.30 0.32 0.31 0.37 0.50 0.63 0.57 0.44 0.40 0.49 0.72 0.73 0.78 0.95 0.90 0.67 0.67 0.51 0.36 0.29 0.26 0.19 0.17 0.14 0.09
0.33 0.31 0.38 0.44 0.44 0.43 0.43 0.44 0.54 0.64 0.68 0.69 0.80 0.87 0.69 0.44 0.37 0.38 0.34 0.22 0.16 0.22 0.22 0.30 0.34 0.39 0.49 0.50 0.61 0.80 0.77 0.66 0.70 0.77 0.66 0.65 0.56 0.42 0.31 0.22 0.17 0.13 0.10
0.62 0.48 0.44 0.56 0.62 0.59 0.49 0.40 0.34 0.34 0.38 0.51 0.61 0.72 0.73 0.62 0.49 0.40 0.44 0.49 0.44 0.46 0.39 0.44 0.47 0.39 0.35 0.26 0.24 0.26 0.28 0.32 0.34 0.50 0.62 0.74 0.81 0.80 0.72 0.52 0.33 0.25 0.18
0.48 0.69 0.84 0.68 0.55 0.44 0.39 0.32 0.19 0.38 0.46 0.39 0.32 0.47 0.52 0.57 0.73 0.59 0.65 0.73 0.64 0.55 0.51 0.41 0.39 0.47 0.41 0.36 0.35 0.32 0.27 0.28 0.30 0.33 0.39 0.40 0.51 0.61 0.55 0.54 0.41 0.50 0.46
0.26 0.48 0.60 0.69 0.71 0.48 0.38 0.31 0.41 0.40 0.52 0.75 0.57 0.54 0.71 0.81 0.98 1.05 0.84 0.74 0.65 0.56 0.55 0.52 0.48 0.49 0.45 0.47 0.46 0.40 0.35 0.31 0.29 0.30 0.31 0.28 0.26 0.22 0.18 0.16 0.25 0.34 0.33
0.08 0.16 0.31 0.51 0.71 0.57 0.32 0.23 0.37 0.65 0.64 0.57 0.74 0.73 0.80 0.95 1.09 1.16 1.14 0.92 0.92 0.89 0.63 0.50 0.52 0.55 0.58 0.50 0.56 0.50 0.50 0.52 0.45 0.38 0.35 0.40 0.37 0.28 0.23 0.18 0.14 0.23 0.32
0.00 0.01 0.03 0.09 0.25 0.50 0.50 0.40 0.38 0.27 0.34 0.33 0.44 0.56 0.62 1.11 1.08 1.47 1.58 1.45 1.12 1.09 1.17 0.98 0.80 0.70 0.79 0.76 0.69 0.64 0.61 0.65 0.71 0.70 0.61 0.57 0.49 0.43 0.32 0.31 0.31 0.34 0.35
0.00 0.00 0.00 0.00 0.02 0.14 0.31 0.47 0.59 0.62 0.50 0.58 0.47 0.49 0.62 0.67 0.53 0.58 0.76 1.13 1.45 1.58 1.43 1.30 1.22 1.17 1.17 1.10 1.06 1.04 0.85 0.88 0.96 0.95 0.95 0.92 0.85 0.72 0.55 0.51 0.55 0.60 0.59
0.00 0.00 0.00 0.00 0.00 0.00 0.01 0.04 0.09 0.22 0.35 0.38 0.52 0.58 0.55 0.63 0.74 0.66 0.56 0.46 0.47 0.61 0.78 0.94 0.95 0.93 0.85 0.73 0.68 0.71 0.81 0.88 0.81 0.80 0.84 0.80 0.74 0.69 0.66 0.60 0.55 0.57 0.64
0.00 0.00 0.00 0.00 0.00 0.00 0.00 0.00 0.00 0.00 0.00 0.01 0.04 0.07 0.10 0.12 0.15 0.18 0.22 0.29 0.30 0.27 0.28 0.30 0.31 0.33 0.36 0.39 0.39 0.40 0.43 0.37 0.36 0.32 0.30 0.30 0.32 0.37 0.41 0.47 0.54 0.57 0.60
0.00 0.00 0.00 0.00 0.00 0.00 0.00 0.00 0.00 0.00 0.00 0.00 0.00 0.00 0.00 0.01 0.00 0.01 0.02 0.04 0.06 0.09 0.14 0.15 0.14 0.11 0.10 0.11 0.14 0.18 0.19 0.19 0.16 0.15 0.14 0.13 0.12 0.11 0.10 0.10 0.15 0.24 0.34
0.00 0.00 0.00 0.00 0.00 0.00 0.00 0.00 0.00 0.00 0.00 0.00 0.00 0.00 0.00 0.00 0.00 0.00 0.00 0.00 0.00 0.00 0.00 0.00 0.00 0.00 0.01 0.00 0.00 0.00 0.01 0.02 0.03 0.04 0.05 0.05 0.05 0.04 0.03 0.03 0.02 0.02 0.02
0.00 0.00 0.00 0.00 0.00 0.00 0.00 0.00 0.00 0.00 0.00 0.00 0.01 0.01 0.00 0.00 0.00 0.00 0.00 0.00 0.00 0.00 0.00 0.00 0.00 0.00 0.00 0.00 0.00 0.00 0.00 0.00 0.01 0.03 0.03 0.02 0.00 0.00 0.01 0.01 0.01 0.02 0.02
0.00 0.00 0.00 0.00 0.00 0.00 0.03 0.03 0.01 0.00 0.00 0.00 0.00 0.01 0.01 0.01 0.00 0.00 0.00 0.00 0.00 0.00 0.00 0.00 0.00 0.00 0.00 0.00 0.00 0.00 0.00 0.00 0.00 0.01 0.01 0.01 0.01 0.00 0.00 0.01 0.01 0.01 0.03
0.00 0.00 0.00 0.00 0.00 0.00 0.00 0.01 0.01 0.01 0.00 0.00 0.00 0.00 0.00 0.00 0.00 0.00 0.00 0.00 0.00 0.00 0.00 0.00 0.00 0.00 0.00 0.00 0.00 0.00 0.00 0.00 0.01 0.00 0.01 0.01 0.01 0.01 0.01 0.00 0.01 0.01 0.02
0.00 0.00 0.00 0.00 0.00 0.00 0.00 0.00 0.00 0.00 0.00 0.00 0.00 0.00 0.00 0.00 0.00 0.00 0.00 0.00 0.00 0.00 0.00 0.00 0.00 0.00 0.00 0.00 0.00 0.01 0.01 0.01 0.00 0.01 0.01 0.01 0.02 0.01 0.01 0.01 0.01 0.01 0.01
0.00 0.00 0.00 0.00 0.00 0.00 0.00 0.00 0.00 0.00 0.00 0.01 0.00 0.00 0.00 0.00 0.00 0.00 0.00 0.00 0.00 0.00 0.00 0.00 0.01 0.00 0.00 0.00 0.00 0.00 0.01 0.00 0.00 0.00 0.01 0.01 0.02 0.02 0.01 0.02 0.02 0.02 0.02
0.00 0.00 0.00 0.00 0.00 0.00 0.00 0.00 0.00 0.00 0.00 0.00 0.00 0.00 0.00 0.00 0.00 0.00 0.00 0.00 0.00 0.00 0.00 0.00 0.01 0.00 0.00 0.00 0.01 0.01 0.01 0.01 0.00 0.00 0.01 0.01 0.02 0.02 0.01 0.01 0.01 0.00 0.01
0.00 0.00 0.00 0.00 0.00 0.00 0.00 0.00 0.00 0.00 0.00 0.00 0.00 0.01 0.00 0.00 0.00 0.00 0.00 0.00 0.00 0.00 0.00 0.00 0.01 0.01 0.01 0.01 0.01 0.01 0.01 0.01 0.00 0.01 0.01 0.01 0.01 0.02 0.02 0.02 0.01 0.00 0.00
0.00 0.00 0.00 0.00 0.00 0.00 0.00 0.00 0.00 0.00 0.00 0.00 0.00 0.01 0.00 0.00 0.00 0.00 0.00 0.00 0.01 0.01 0.01 0.01 0.01 0.01 0.01 0.01 0.01 0.01 0.01 0.01 0.01 0.01 0.01 0.01 0.02 0.02 0.02 0.01 0.00 0.00 0.00
0.00 0.00 0.00 0.00 0.00 0.00 0.00 0.00 0.00 0.00 0.00 0.00 0.00 0.00 0.00 0.00 0.00 0.00 0.00 0.01 0.01 0.01 0.01 0.01 0.01 0.01 0.01 0.02 0.03 0.02 0.01 0.01 0.01 0.01 0.01 0.02 0.01 0.01 0.02 0.01 0.01 0.01 0.00
0.00 0.00 0.00 0.00 0.00 0.00 0.00 0.00 0.00 0.00 0.00 0.00 0.01 0.01 0.01 0.02 0.02 0.01 0.01 0.02 0.01 0.01 0.01 0.01 0.01 0.00 0.00 0.00 0.02 0.02 0.02 0.02 0.02 0.01 0.02 0.02 0.02 0.01 0.02 0.01 0.01 0.01 0.01
0.00 0.00 0.00 0.00 0.00 0.00 0.00 0.00 0.01 0.01 0.01 0.01 0.01 0.01 0.01 0.02 0.02 0.01 0.03 0.03 0.01 0.01 0.01 0.02 0.02 0.01 0.00 0.00 0.00 0.01 0.01 0.02 0.02 0.01 0.02 0.03 0.02 0.02 0.01 0.01 0.01 0.01 0.01
0.00 0.00 0.01 0.01 0.01 0.01 0.01 0.01 0.01 0.01 0.01 0.01 0.02 0.02 0.02 0.02 0.01 0.02 0.03 0.02 0.01 0.01 0.02 0.02 0.02 0.01 0.01 0.00 0.01 0.01 0.01 0.02 0.02 0.02 0.01 0.03 0.02 0.02 0.01 0.00 0.01 0.01 0.01
0.00 0.01 0.00 0.00 0.00 0.01 0.01 0.01 0.01 0.01 0.01 0.02 0.01 0.01 0.02 0.02 0.02 0.03 0.02 0.02 0.02 0.02 0.02 0.02 0.02 0.02 0.01 0.01 0.01 0.01 0.01 0.02 0.02 0.02 0.02 0.02 0.02 0.01 0.01 0.01 0.01 0.01 0.01

GFSGL_prec_precacc24_147.txt.gz
Total_Precipitation_Accumulation
0.02 0.02 0.06 0.14 0.23 0.22 0.23 0.23 0.24 0.25 0.26 0.23 0.22 0.22 0.24 0.24 0.24 0.23 0.19 0.17 0.20 0.30 0.30 0.30 0.23 0.24 0.38 0.53 0.45 0.53 0.75 0.96 1.01 0.68 0.63 0.55 0.53 0.54 0.44 0.39 0.47 0.53 0.65
0.03 0.08 0.20 0.30 0.30 0.24 0.29 0.28 0.26 0.29 0.27 0.26 0.28 0.24 0.23 0.24 0.24 0.24 0.25 0.25 0.25 0.35 0.51 0.62 0.59 0.44 0.37 0.43 0.45 0.39 0.54 0.71 0.70 0.62 0.62 0.46 0.38 0.43 0.44 0.54 0.58 0.42 0.26
0.05 0.17 0.27 0.33 0.32 0.33 0.31 0.30 0.28 0.30 0.30 0.25 0.29 0.31 0.25 0.22 0.22 0.23 0.24 0.22 0.22 0.25 0.25 0.28 0.33 0.35 0.42 0.44 0.50 0.53 0.51 0.48 0.57 0.68 0.62 0.57 0.51 0.46 0.36 0.39 0.49 0.54 0.50
0.09 0.16 0.23 0.38 0.48 0.45 0.37 0.29 0.16 0.11 0.12 0.17 0.25 0.34 0.35 0.26 0.24 0.24 0.22 0.23 0.29 0.29 0.31 0.31 0.34 0.23 0.19 0.18 0.19 0.22 0.21 0.25 0.30 0.46 0.57 0.72 0.78 0.83 0.82 0.62 0.43 0.40 0.46
0.07 0.11 0.25 0.32 0.37 0.30 0.26 0.19 0.12 0.13 0.13 0.13 0.11 0.11 0.12 0.16 0.28 0.24 0.25 0.23 0.24 0.27 0.30 0.24 0.29 0.45 0.40 0.36 0.31 0.27 0.23 0.28 0.30 0.32 0.38 0.40 0.52 0.62 0.60 0.66 0.56 0.64 0.64
0.02 0.06 0.07 0.09 0.17 0.22 0.25 0.17 0.15 0.15 0.15 0.22 0.25 0.21 0.19 0.20 0.15 0.18 0.20 0.28 0.30 0.22 0.25 0.25 0.28 0.31 0.38 0.45 0.52 0.47 0.36 0.31 0.31 0.31 0.31 0.28 0.27 0.23 0.21 0.27 0.43 0.57 0.63
0.00 0.00 0.00 0.01 0.03 0.07 0.11 0.08 0.11 0.25 0.27 0.23 0.32 0.34 0.41 0.48 0.43 0.34 0.30 0.29 0.47 0.51 0.35 0.29 0.33 0.39 0.39 0.32 0.35 0.33 0.35 0.40 0.38 0.34 0.35 0.40 0.38 0.28 0.21 0.16 0.13 0.21 0.33
0.00 0.00 0.00 0.00 0.00 0.00 0.01 0.01 0.02 0.03 0.05 0.14 0.19 0.26 0.33 0.59 0.63 0.67 0.63 0.62 0.60 0.64 0.77 0.63 0.50 0.47 0.61 0.61 0.57 0.53 0.46 0.47 0.54 0.60 0.57 0.56 0.49 0.43 0.31 0.28 0.26 0.26 0.25
0.00 0.00 0.00 0.00 0.00 0.00 0.00 0.00 0.01 0.01 0.01 0.01 0.01 0.01 0.04 0.08 0.08 0.17 0.26 0.48 0.59 0.70 0.71 0.72 0.69 0.70 0.75 0.76 0.76 0.76 0.65 0.76 0.87 0.88 0.91 0.90 0.84 0.71 0.55 0.51 0.53 0.50 0.50
0.00 0.00 0.00 0.00 0.00 0.00 0.00 0.00 0.00 0.00 0.00 0.00 0.00 0.01 0.00 0.00 0.00 0.00 0.01 0.04 0.08 0.12 0.19 0.37 0.43 0.49 0.54 0.52 0.51 0.53 0.64 0.75 0.73 0.75 0.80 0.78 0.73 0.69 0.66 0.59 0.56 0.54 0.60
0.00 0.00 0.00 0.00 0.00 0.00 0.00 0.00 0.00 0.00 0.00 0.00 0.00 0.00 0.00 0.00 0.00 0.00 0.00 0.01 0.02 0.03 0.04 0.05 0.07 0.09 0.14 0.17 0.17 0.18 0.20 0.18 0.20 0.21 0.22 0.25 0.30 0.35 0.40 0.47 0.53 0.56 0.55
0.00 0.00 0.00 0.00 0.00 0.00 0.00 0.00 0.00 0.00 0.00 0.00 0.00 0.00 0.00 0.00 0.00 0.00 0.00 0.00 0.00 0.00 0.02 0.01 0.01 0.00 0.01 0.01 0.02 0.02 0.02 0.03 0.03 0.03 0.03 0.03 0.04 0.05 0.06 0.07 0.13 0.23 0.31
0.00 0.00 0.00 0.00 0.00 0.00 0.00 0.00 0.00 0.00 0.00 0.00 0.00 0.00 0.00 0.00 0.00 0.00 0.00 0.00 0.00 0.00 0.00 0.00 0.00 0.00 0.00 0.00 0.00 0.00 0.00 0.01 0.01 0.01 0.02 0.02 0.01 0.01 0.01 0.01 0.01 0.01 0.01
0.00 0.00 0.00 0.00 0.00 0.01 0.00 0.00 0.00 0.00 0.00 0.00 0.01 0.01 0.00 0.00 0.00 0.00 0.00 0.00 0.00 0.00 0.00 0.00 0.00 0.00 0.00 0.00 0.00 0.00 0.00 0.00 0.00 0.01 0.01 0.01 0.00 0.00 0.00 0.00 0.00 0.00 0.00
0.00 0.00 0.00 0.00 0.00 0.00 0.02 0.03 0.01 0.00 0.00 0.00 0.01 0.01 0.01 0.01 0.00 0.00 0.00 0.00 0.00 0.00 0.00 0.00 0.00 0.00 0.00 0.00 0.00 0.00 0.00 0.00 0.00 0.00 0.00 0.00 0.00 0.00 0.00 0.00 0.00 0.00 0.00
0.00 0.00 0.00 0.00 0.00 0.00 0.00 0.00 0.01 0.00 0.00 0.00 0.00 0.00 0.00 0.00 0.00 0.00 0.00 0.00 0.00 0.00 0.00 0.00 0.00 0.00 0.00 0.00 0.00 0.00 0.00 0.00 0.00 0.00 0.00 0.00 0.01 0.00 0.00 0.00 0.00 0.00 0.00
0.00 0.00 0.00 0.00 0.00 0.00 0.00 0.00 0.00 0.00 0.00 0.00 0.00 0.00 0.00 0.00 0.00 0.00 0.00 0.00 0.00 0.00 0.00 0.00 0.00 0.00 0.00 0.00 0.00 0.00 0.00 0.00 0.00 0.00 0.00 0.01 0.01 0.01 0.01 0.00 0.00 0.00 0.00
0.00 0.00 0.00 0.00 0.00 0.00 0.00 0.00 0.00 0.01 0.01 0.01 0.00 0.00 0.00 0.00 0.00 0.00 0.00 0.00 0.00 0.00 0.00 0.00 0.00 0.00 0.00 0.00 0.00 0.00 0.00 0.01 0.00 0.00 0.00 0.01 0.01 0.01 0.01 0.01 0.01 0.00 0.00
0.00 0.00 0.00 0.00 0.00 0.00 0.00 0.00 0.00 0.00 0.00 0.00 0.00 0.00 0.00 0.00 0.00 0.00 0.00 0.00 0.00 0.00 0.00 0.00 0.00 0.00 0.00 0.00 0.01 0.01 0.01 0.01 0.01 0.00 0.01 0.01 0.01 0.01 0.01 0.01 0.01 0.00 0.00
0.00 0.00 0.00 0.00 0.00 0.00 0.00 0.00 0.00 0.00 0.00 0.00 0.00 0.01 0.00 0.00 0.00 0.00 0.00 0.00 0.00 0.00 0.00 0.00 0.00 0.00 0.01 0.01 0.01 0.01 0.01 0.01 0.00 0.01 0.01 0.01 0.01 0.02 0.02 0.02 0.01 0.01 0.00
0.00 0.00 0.00 0.00 0.00 0.00 0.00 0.00 0.00 0.00 0.00 0.00 0.00 0.00 0.00 0.00 0.00 0.00 0.00 0.00 0.01 0.00 0.01 0.00 0.00 0.01 0.01 0.00 0.00 0.01 0.01 0.01 0.01 0.01 0.01 0.01 0.01 0.01 0.02 0.02 0.01 0.01 0.00
0.00 0.00 0.00 0.00 0.00 0.00 0.00 0.00 0.00 0.00 0.00 0.00 0.00 0.00 0.00 0.00 0.00 0.00 0.00 0.01 0.01 0.00 0.01 0.01 0.01 0.01 0.01 0.01 0.01 0.01 0.01 0.02 0.02 0.01 0.01 0.01 0.01 0.01 0.02 0.02 0.01 0.01 0.01
0.00 0.00 0.00 0.00 0.00 0.00 0.00 0.00 0.00 0.00 0.00 0.00 0.00 0.00 0.00 0.01 0.01 0.00 0.01 0.02 0.01 0.00 0.00 0.01 0.01 0.00 0.00 0.00 0.01 0.02 0.03 0.03 0.02 0.01 0.02 0.02 0.02 0.01 0.02 0.02 0.02 0.01 0.01
0.00 0.00 0.00 0.00 0.00 0.00 0.00 0.00 0.00 0.00 0.00 0.00 0.00 0.00 0.00 0.01 0.01 0.00 0.01 0.02 0.01 0.01 0.00 0.01 0.01 0.01 0.00 0.00 0.00 0.01 0.02 0.02 0.02 0.01 0.02 0.03 0.02 0.02 0.02 0.02 0.02 0.01 0.01
0.00 0.00 0.00 0.00 0.00 0.00 0.00 0.00 0.00 0.00 0.00 0.00 0.00 0.00 0.00 0.01 0.01 0.00 0.00 0.00 0.00 0.00 0.01 0.02 0.01 0.01 0.00 0.00 0.01 0.01 0.01 0.02 0.02 0.02 0.02 0.03 0.03 0.02 0.04 0.03 0.02 0.01 0.01
0.00 0.00 0.00 0.00 0.00 0.00 0.00 0.00 0.00 0.00 0.00 0.00 0.00 0.00 0.00 0.01 0.01 0.00 0.00 0.00 0.00 0.00 0.01 0.01 0.01 0.01 0.01 0.00 0.01 0.01 0.01 0.02 0.02 0.02 0.02 0.02 0.04 0.04 0.03 0.01 0.01 0.02 0.01

GFSGL_prec_precacc24_150.txt.gz
Total_Precipitation_Accumulation
0.01 0.01 0.04 0.12 0.20 0.21 0.23 0.22 0.23 0.24 0.26 0.23 0.23 0.22 0.25 0.25 0.24 0.23 0.20 0.18 0.18 0.16 0.15 0.15 0.14 0.15 0.16 0.18 0.32 0.50 0.66 0.87 0.94 0.67 0.62 0.53 0.51 0.52 0.41 0.34 0.44 0.51 0.64
0.01 0.06 0.18 0.27 0.27 0.22 0.27 0.26 0.25 0.28 0.27 0.26 0.27 0.23 0.22 0.23 0.25 0.25 0.26 0.26 0.24 0.23 0.19 0.16 0.14 0.14 0.15 0.26 0.33 0.31 0.44 0.59 0.60 0.62 0.61 0.45 0.35 0.37 0.38 0.47 0.52 0.39 0.26
0.04 0.14 0.23 0.26 0.27 0.28 0.29 0.28 0.26 0.29 0.29 0.24 0.27 0.28 0.23 0.22 0.22 0.23 0.24 0.22 0.23 0.23 0.22 0.21 0.19 0.13 0.17 0.29 0.37 0.47 0.39 0.39 0.48 0.67 0.63 0.57 0.51 0.42 0.32 0.35 0.46 0.52 0.50
0.04 0.11 0.16 0.23 0.34 0.37 0.31 0.25 0.13 0.08 0.09 0.13 0.21 0.31 0.32 0.25 0.23 0.23 0.22 0.23 0.27 0.26 0.28 0.25 0.29 0.21 0.19 0.15 0.13 0.16 0.14 0.17 0.24 0.40 0.53 0.72 0.76 0.79 0.78 0.59 0.42 0.39 0.46
0.01 0.04 0.12 0.16 0.19 0.18 0.19 0.11 0.03 0.04 0.07 0.08 0.07 0.09 0.11 0.14 0.26 0.23 0.23 0.22 0.22 0.25 0.27 0.19 0.23 0.36 0.34 0.34 0.31 0.24 0.16 0.19 0.22 0.27 0.33 0.37 0.50 0.62 0.59 0.66 0.57 0.66 0.64
0.00 0.00 0.01 0.01 0.01 0.02 0.04 0.04 0.02 0.02 0.03 0.05 0.12 0.16 0.17 0.19 0.15 0.13 0.13 0.16 0.14 0.15 0.20 0.17 0.16 0.19 0.28 0.32 0.39 0.33 0.24 0.24 0.28 0.30 0.30 0.28 0.28 0.23 0.22 0.28 0.43 0.59 0.64
0.00 0.00 0.00 0.00 0.00 0.00 0.00 0.00 0.01 0.01 0.01 0.04 0.06 0.10 0.19 0.28 0.24 0.18 0.12 0.08 0.06 0.08 0.09 0.11 0.11 0.11 0.09 0.12 0.15 0.16 0.21 0.26 0.27 0.28 0.31 0.38 0.35 0.25 0.20 0.16 0.13 0.21 0.33
0.00 0.00 0.00 0.00 0.00 0.00 0.00 0.00 0.00 0.01 0.01 0.01 0.02 0.02 0.04 0.10 0.17 0.25 0.25 0.24 0.22 0.25 0.33 0.24 0.15 0.15 0.21 0.15 0.14 0.19 0.22 0.28 0.41 0.46 0.45 0.47 0.43 0.39 0.30 0.26 0.25 0.26 0.26
0.00 0.00 0.00 0.00 0.00 0.00 0.00 0.00 0.00 0.00 0.00 0.00 0.01 0.01 0.01 0.00 0.01 0.03 0.10 0.15 0.16 0.19 0.24 0.32 0.38 0.42 0.44 0.35 0.27 0.30 0.34 0.45 0.55 0.65 0.73 0.74 0.74 0.64 0.51 0.49 0.52 0.50 0.50
0.00 0.00 0.00 0.00 0.00 0.00 0.00 0.00 0.00 0.00 0.00 0.00 0.00 0.01 0.00 0.00 0.00 0.00 0.01 0.02 0.04 0.06 0.07 0.09 0.11 0.15 0.17 0.17 0.19 0.22 0.32 0.48 0.51 0.55 0.64 0.67 0.65 0.62 0.60 0.56 0.53 0.53 0.60
0.00 0.00 0.00 0.00 0.00 0.00 0.00 0.00 0.00 0.00 0.00 0.00 0.00 0.00 0.00 0.00 0.00 0.00 0.00 0.00 0.01 0.01 0.02 0.03 0.03 0.04 0.04 0.04 0.05 0.07 0.08 0.07 0.10 0.12 0.15 0.19 0.25 0.32 0.38 0.44 0.51 0.55 0.54
0.00 0.00 0.00 0.00 0.00 0.00 0.00 0.00 0.00 0.00 0.00 0.00 0.00 0.00 0.00 0.00 0.00 0.00 0.00 0.00 0.00 0.00 0.01 0.00 0.00 0.00 0.00 0.01 0.02 0.01 0.02 0.02 0.02 0.02 0.02 0.02 0.02 0.02 0.03 0.04 0.10 0.20 0.28
0.00 0.00 0.00 0.00 0.00 0.00 0.00 0.00 0.00 0.00 0.00 0.01 0.00 0.00 0.00 0.00 0.00 0.00 0.00 0.00 0.00 0.00 0.00 0.00 0.00 0.00 0.00 0.00 0.00 0.00 0.00 0.01 0.01 0.01 0.01 0.01 0.01 0.01 0.00 0.00 0.00 0.00 0.00
0.00 0.00 0.00 0.00 0.00 0.01 0.00 0.00 0.00 0.00 0.00 0.00 0.01 0.01 0.00 0.00 0.00 0.00 0.00 0.00 0.00 0.00 0.00 0.00 0.00 0.00 0.00 0.00 0.00 0.00 0.00 0.00 0.00 0.01 0.01 0.00 0.00 0.00 0.00 0.00 0.00 0.00 0.00
0.00 0.00 0.00 0.00 0.00 0.00 0.01 0.01 0.00 0.00 0.00 0.00 0.01 0.01 0.00 0.00 0.00 0.00 0.00 0.00 0.00 0.00 0.00 0.00 0.00 0.00 0.00 0.00 0.00 0.00 0.00 0.00 0.00 0.00 0.00 0.00 0.00 0.00 0.00 0.00 0.00 0.00 0.00
0.00 0.00 0.00 0.00 0.00 0.00 0.00 0.00 0.00 0.00 0.00 0.00 0.00 0.00 0.00 0.00 0.00 0.00 0.00 0.00 0.00 0.00 0.00 0.00 0.00 0.00 0.00 0.00 0.00 0.00 0.00 0.00 0.00 0.00 0.00 0.00 0.00 0.00 0.00 0.00 0.00 0.00 0.00
0.00 0.00 0.00 0.00 0.00 0.00 0.00 0.00 0.00 0.00 0.00 0.00 0.00 0.00 0.00 0.00 0.00 0.00 0.00 0.00 0.00 0.00 0.00 0.00 0.00 0.00 0.00 0.00 0.00 0.00 0.00 0.00 0.00 0.00 0.00 0.00 0.00 0.00 0.00 0.00 0.00 0.00 0.00
0.00 0.00 0.00 0.00 0.00 0.00 0.00 0.00 0.00 0.01 0.01 0.01 0.00 0.00 0.00 0.00 0.00 0.00 0.00 0.00 0.00 0.00 0.00 0.00 0.00 0.00 0.00 0.00 0.00 0.00 0.00 0.00 0.00 0.00 0.00 0.01 0.00 0.00 0.01 0.01 0.01 0.00 0.00
0.00 0.00 0.00 0.00 0.00 0.00 0.00 0.00 0.00 0.00 0.00 0.00 0.00 0.00 0.00 0.00 0.00 0.00 0.00 0.00 0.00 0.00 0.00 0.00 0.00 0.00 0.00 0.00 0.01 0.01 0.01 0.01 0.01 0.00 0.00 0.01 0.01 0.01 0.01 0.01 0.01 0.00 0.00
0.00 0.00 0.00 0.00 0.00 0.00 0.00 0.00 0.00 0.00 0.00 0.00 0.00 0.01 0.00 0.00 0.00 0.00 0.00 0.00 0.00 0.00 0.00 0.00 0.00 0.00 0.01 0.01 0.01 0.01 0.01 0.01 0.01 0.01 0.01 0.01 0.01 0.01 0.02 0.02 0.02 0.01 0.00
0.00 0.00 0.00 0.00 0.00 0.00 0.00 0.00 0.00 0.00 0.00 0.00 0.00 0.00 0.00 0.00 0.00 0.00 0.00 0.00 0.01 0.00 0.01 0.00 0.00 0.01 0.01 0.00 0.00 0.01 0.01 0.01 0.01 0.01 0.01 0.01 0.01 0.01 0.01 0.02 0.01 0.01 0.00
0.00 0.00 0.00 0.00 0.00 0.00 0.00 0.00 0.00 0.00 0.00 0.00 0.00 0.00 0.00 0.00 0.00 0.00 0.00 0.01 0.01 0.00 0.01 0.01 0.01 0.01 0.01 0.01 0.01 0.01 0.01 0.02 0.02 0.01 0.01 0.01 0.01 0.01 0.02 0.01 0.02 0.01 0.01
0.00 0.00 0.00 0.00 0.00 0.00 0.00 0.00 0.00 0.00 0.00 0.00 0.00 0.00 0.00 0.01 0.00 0.00 0.00 0.01 0.00 0.00 0.00 0.01 0.01 0.00 0.00 0.00 0.01 0.02 0.03 0.03 0.02 0.01 0.02 0.02 0.01 0.01 0.02 0.02 0.02 0.02 0.01
0.00 0.00 0.00 0.00 0.00 0.00 0.00 0.00 0.00 0.00 0.00 0.00 0.00 0.00 0.00 0.01 0.01 0.00 0.00 0.00 0.00 0.00 0.00 0.01 0.01 0.01 0.00 0.00 0.00 0.01 0.02 0.02 0.02 0.01 0.02 0.03 0.02 0.02 0.02 0.03 0.02 0.01 0.01
0.00 0.00 0.00 0.00 0.00 0.00 0.00 0.00 0.00 0.00 0.00 0.00 0.00 0.00 0.00 0.00 0.00 0.00 0.00 0.00 0.00 0.00 0.00 0.00 0.01 0.00 0.00 0.00 0.01 0.01 0.01 0.02 0.02 0.02 0.02 0.03 0.03 0.02 0.04 0.04 0.02 0.01 0.01
0.00 0.00 0.00 0.00 0.00 0.00 0.00 0.00 0.00 0.00 0.00 0.00 0.00 0.00 0.00 0.00 0.00 0.00 0.00 0.00 0.00 0.00 0.00 0.00 0.00 0.00 0.00 0.00 0.01 0.01 0.01 0.02 0.02 0.02 0.02 0.02 0.04 0.04 0.03 0.02 0.01 0.02 0.02

GFSGL_prec_precacc24_153.txt.gz
Total_Precipitation_Accumulation
0.00 0.01 0.03 0.10 0.18 0.18 0.20 0.19 0.19 0.21 0.23 0.21 0.21 0.21 0.24 0.24 0.24 0.23 0.20 0.18 0.18 0.15 0.14 0.15 0.12 0.12 0.17 0.23 0.37 0.52 0.63 0.81 0.90 0.65 0.60 0.52 0.52 0.53 0.42 0.34 0.44 0.51 0.63
0.01 0.05 0.16 0.22 0.23 0.18 0.22 0.21 0.21 0.24 0.24 0.23 0.25 0.21 0.22 0.23 0.24 0.24 0.25 0.25 0.24 0.21 0.16 0.14 0.13 0.13 0.15 0.20 0.24 0.26 0.41 0.55 0.55 0.59 0.55 0.40 0.34 0.38 0.37 0.47 0.51 0.38 0.25
0.02 0.10 0.18 0.20 0.19 0.21 0.23 0.22 0.22 0.25 0.26 0.22 0.26 0.28 0.23 0.21 0.21 0.21 0.23 0.21 0.23 0.23 0.22 0.21 0.20 0.14 0.14 0.15 0.21 0.23 0.23 0.23 0.33 0.57 0.58 0.51 0.44 0.39 0.31 0.35 0.44 0.50 0.49
0.01 0.05 0.10 0.14 0.21 0.24 0.23 0.18 0.11 0.07 0.08 0.13 0.20 0.31 0.31 0.24 0.21 0.21 0.19 0.20 0.26 0.26 0.28 0.26 0.31 0.24 0.24 0.19 0.15 0.17 0.17 0.17 0.17 0.30 0.43 0.64 0.71 0.73 0.73 0.57 0.41 0.39 0.46
0.00 0.00 0.03 0.06 0.08 0.07 0.08 0.07 0.02 0.02 0.04 0.03 0.02 0.05 0.08 0.12 0.22 0.19 0.20 0.19 0.21 0.24 0.27 0.19 0.23 0.35 0.33 0.36 0.31 0.24 0.13 0.13 0.16 0.21 0.27 0.31 0.47 0.59 0.58 0.65 0.56 0.66 0.64
0.00 0.00 0.00 0.00 0.00 0.00 0.00 0.00 0.00 0.00 0.00 0.01 0.01 0.01 0.04 0.09 0.08 0.09 0.12 0.14 0.13 0.14 0.18 0.16 0.14 0.17 0.26 0.25 0.27 0.25 0.16 0.16 0.19 0.20 0.22 0.21 0.24 0.24 0.25 0.28 0.43 0.59 0.65
0.00 0.00 0.00 0.00 0.00 0.00 0.00 0.00 0.00 0.00 0.00 0.00 0.01 0.00 0.01 0.04 0.07 0.11 0.09 0.08 0.05 0.06 0.07 0.09 0.08 0.07 0.05 0.05 0.07 0.07 0.05 0.05 0.10 0.13 0.17 0.21 0.21 0.21 0.19 0.16 0.13 0.21 0.33
0.00 0.00 0.00 0.00 0.00 0.00 0.00 0.00 0.00 0.01 0.00 0.01 0.01 0.00 0.00 0.00 0.01 0.03 0.08 0.09 0.09 0.09 0.10 0.09 0.07 0.07 0.10 0.06 0.03 0.02 0.02 0.05 0.12 0.16 0.16 0.19 0.22 0.23 0.19 0.20 0.23 0.25 0.25
0.00 0.00 0.00 0.00 0.00 0.00 0.00 0.00 0.00 0.00 0.00 0.00 0.01 0.00 0.00 0.00 0.00 0.00 0.00 0.01 0.01 0.02 0.04 0.07 0.12 0.16 0.18 0.17 0.13 0.15 0.13 0.12 0.16 0.20 0.24 0.31 0.30 0.29 0.30 0.31 0.33 0.38 0.44
0.00 0.00 0.00 0.00 0.00 0.00 0.00 0.00 0.00 0.00 0.00 0.00 0.00 0.00 0.00 0.00 0.00 0.00 0.00 0.01 0.01 0.02 0.02 0.03 0.04 0.06 0.07 0.08 0.11 0.14 0.18 0.22 0.26 0.28 0.29 0.27 0.27 0.31 0.35 0.40 0.45 0.47 0.53
0.00 0.00 0.00 0.00 0.00 0.00 0.00 0.00 0.00 0.00 0.00 0.00 0.00 0.00 0.00 0.00 0.00 0.00 0.00 0.00 0.00 0.00 0.01 0.02 0.02 0.03 0.03 0.02 0.02 0.04 0.05 0.03 0.04 0.06 0.08 0.09 0.11 0.16 0.23 0.32 0.43 0.49 0.49
0.00 0.00 0.00 0.00 0.00 0.00 0.00 0.00 0.00 0.00 0.00 0.00 0.00 0.00 0.00 0.00 0.00 0.00 0.00 0.00 0.00 0.00 0.00 0.00 0.00 0.00 0.00 0.01 0.02 0.01 0.01 0.01 0.01 0.01 0.01 0.01 0.01 0.01 0.01 0.02 0.07 0.15 0.23
0.00 0.00 0.00 0.00 0.00 0.00 0.00 0.00 0.01 0.00 0.00 0.01 0.00 0.00 0.00 0.00 0.00 0.00 0.00 0.00 0.00 0.00 0.00 0.00 0.00 0.00 0.00 0.00 0.00 0.00 0.00 0.00 0.01 0.01 0.01 0.01 0.01 0.01 0.00 0.00 0.00 0.00 0.00
0.00 0.00 0.00 0.00 0.00 0.00 0.00 0.00 0.00 0.00 0.00 0.00 0.00 0.00 0.00 0.00 0.00 0.00 0.00 0.00 0.00 0.00 0.00 0.00 0.00 0.00 0.00 0.00 0.00 0.00 0.00 0.00 0.00 0.00 0.00 0.00 0.00 0.00 0.00 0.00 0.00 0.00 0.00
0.00 0.00 0.00 0.00 0.00 0.00 0.00 0.00 0.00 0.00 0.00 0.00 0.01 0.00 0.00 0.00 0.00 0.00 0.00 0.00 0.00 0.00 0.00 0.00 0.00 0.00 0.00 0.00 0.00 0.00 0.00 0.00 0.00 0.00 0.00 0.00 0.00 0.00 0.00 0.00 0.00 0.00 0.00
0.00 0.00 0.00 0.00 0.00 0.00 0.00 0.00 0.00 0.00 0.00 0.00 0.00 0.00 0.00 0.00 0.00 0.00 0.00 0.00 0.00 0.00 0.00 0.00 0.00 0.00 0.00 0.00 0.00 0.00 0.00 0.00 0.00 0.00 0.00 0.00 0.00 0.00 0.00 0.00 0.00 0.00 0.00
0.00 0.00 0.00 0.00 0.00 0.00 0.00 0.00 0.00 0.00 0.00 0.00 0.00 0.00 0.00 0.00 0.00 0.00 0.00 0.00 0.00 0.00 0.00 0.00 0.00 0.00 0.00 0.00 0.00 0.00 0.00 0.00 0.00 0.00 0.00 0.00 0.00 0.00 0.00 0.00 0.00 0.00 0.00
0.00 0.00 0.00 0.00 0.00 0.00 0.00 0.00 0.00 0.01 0.01 0.01 0.00 0.00 0.00 0.00 0.00 0.00 0.00 0.00 0.00 0.00 0.00 0.00 0.00 0.00 0.00 0.00 0.00 0.00 0.00 0.00 0.00 0.00 0.00 0.01 0.00 0.00 0.01 0.01 0.00 0.00 0.00
0.00 0.00 0.00 0.00 0.00 0.00 0.00 0.00 0.00 0.00 0.00 0.00 0.00 0.00 0.00 0.00 0.00 0.00 0.00 0.00 0.00 0.00 0.00 0.00 0.00 0.00 0.00 0.00 0.01 0.01 0.01 0.01 0.01 0.00 0.00 0.01 0.01 0.00 0.01 0.01 0.00 0.00 0.00
0.00 0.00 0.00 0.00 0.00 0.00 0.00 0.00 0.00 0.00 0.00 0.00 0.00 0.01 0.00 0.00 0.00 0.00 0.00 0.00 0.00 0.00 0.00 0.00 0.00 0.00 0.01 0.01 0.01 0.01 0.01 0.01 0.01 0.01 0.01 0.01 0.01 0.01 0.01 0.02 0.01 0.01 0.00
0.00 0.00 0.00 0.00 0.00 0.00 0.00 0.00 0.00 0.00 0.00 0.00 0.00 0.00 0.00 0.00 0.00 0.00 0.00 0.00 0.00 0.00 0.01 0.00 0.00 0.01 0.01 0.00 0.00 0.01 0.01 0.01 0.01 0.01 0.01 0.01 0.01 0.01 0.01 0.02 0.01 0.01 0.00
0.00 0.00 0.00 0.00 0.00 0.00 0.00 0.00 0.00 0.00 0.00 0.00 0.00 0.00 0.00 0.00 0.00 0.00 0.00 0.00 0.01 0.00 0.00 0.00 0.01 0.01 0.01 0.01 0.01 0.01 0.01 0.02 0.02 0.01 0.01 0.01 0.01 0.01 0.02 0.01 0.02 0.01 0.01
0.00 0.00 0.00 0.00 0.00 0.00 0.00 0.00 0.00 0.00 0.00 0.00 0.00 0.00 0.00 0.00 0.00 0.00 0.00 0.01 0.00 0.00 0.00 0.00 0.00 0.00 0.00 0.00 0.01 0.02 0.03 0.03 0.02 0.01 0.02 0.02 0.01 0.01 0.02 0.02 0.02 0.02 0.01
0.00 0.00 0.00 0.00 0.00 0.00 0.00 0.00 0.00 0.00 0.00 0.00 0.00 0.00 0.00 0.00 0.01 0.00 0.00 0.00 0.00 0.00 0.00 0.00 0.00 0.00 0.00 0.00 0.00 0.01 0.02 0.02 0.02 0.01 0.02 0.03 0.02 0.02 0.02 0.03 0.02 0.01 0.02
0.00 0.00 0.00 0.00 0.00 0.00 0.00 0.00 0.00 0.00 0.00 0.00 0.00 0.00 0.00 0.00 0.00 0.00 0.00 0.00 0.00 0.00 0.00 0.00 0.00 0.00 0.00 0.00 0.00 0.01 0.01 0.02 0.02 0.02 0.02 0.03 0.03 0.02 0.04 0.04 0.02 0.01 0.02
0.00 0.00 0.00 0.00 0.00 0.00 0.00 0.00 0.00 0.00 0.00 0.00 0.00 0.00 0.00 0.00 0.00 0.00 0.00 0.00 0.00 0.00 0.00 0.00 0.00 0.00 0.00 0.00 0.01 0.00 0.01 0.02 0.02 0.02 0.02 0.02 0.04 0.04 0.03 0.02 0.01 0.02 0.02

GFSGL_prec_precacc24_159.txt.gz
Total_Precipitation_Accumulation
0.00 0.00 0.00 0.02 0.05 0.06 0.06 0.06 0.08 0.12 0.14 0.12 0.13 0.13 0.16 0.18 0.19 0.18 0.16 0.16 0.17 0.15 0.14 0.16 0.13 0.11 0.14 0.18 0.34 0.47 0.51 0.46 0.42 0.28 0.27 0.40 0.56 0.65 0.50 0.38 0.42 0.51 0.63
0.00 0.00 0.01 0.03 0.04 0.04 0.05 0.06 0.09 0.13 0.14 0.15 0.17 0.14 0.15 0.17 0.19 0.20 0.21 0.21 0.20 0.17 0.15 0.14 0.13 0.13 0.15 0.20 0.24 0.25 0.43 0.56 0.56 0.59 0.53 0.37 0.35 0.44 0.47 0.51 0.51 0.43 0.29
0.00 0.00 0.00 0.01 0.01 0.02 0.02 0.02 0.06 0.13 0.16 0.15 0.18 0.20 0.17 0.16 0.17 0.18 0.20 0.19 0.19 0.19 0.19 0.19 0.22 0.14 0.14 0.19 0.30 0.36 0.29 0.27 0.46 0.69 0.65 0.55 0.46 0.39 0.32 0.36 0.42 0.51 0.50
0.00 0.00 0.00 0.00 0.01 0.00 0.00 0.00 0.01 0.01 0.02 0.05 0.12 0.21 0.24 0.19 0.17 0.17 0.15 0.16 0.20 0.21 0.24 0.22 0.27 0.24 0.25 0.21 0.22 0.33 0.33 0.28 0.31 0.47 0.59 0.71 0.76 0.74 0.70 0.54 0.40 0.39 0.46
0.00 0.00 0.00 0.00 0.00 0.00 0.00 0.00 0.00 0.00 0.00 0.00 0.00 0.01 0.03 0.06 0.12 0.13 0.15 0.14 0.14 0.16 0.19 0.13 0.16 0.28 0.28 0.31 0.27 0.29 0.26 0.28 0.30 0.35 0.44 0.47 0.57 0.64 0.61 0.66 0.56 0.62 0.57
0.00 0.00 0.00 0.00 0.00 0.00 0.00 0.00 0.00 0.00 0.00 0.00 0.00 0.00 0.00 0.01 0.00 0.01 0.02 0.05 0.05 0.04 0.05 0.03 0.03 0.10 0.20 0.19 0.23 0.21 0.16 0.20 0.25 0.22 0.24 0.28 0.33 0.31 0.30 0.29 0.46 0.60 0.63
0.00 0.00 0.00 0.00 0.00 0.00 0.00 0.00 0.00 0.00 0.00 0.00 0.00 0.00 0.00 0.00 0.00 0.00 0.00 0.00 0.00 0.01 0.01 0.01 0.01 0.02 0.02 0.03 0.05 0.05 0.03 0.02 0.05 0.09 0.12 0.14 0.12 0.14 0.11 0.08 0.08 0.16 0.28
0.00 0.00 0.00 0.00 0.00 0.00 0.00 0.00 0.00 0.00 0.00 0.00 0.00 0.00 0.00 0.00 0.00 0.00 0.00 0.00 0.00 0.00 0.00 0.00 0.00 0.00 0.00 0.00 0.00 0.00 0.02 0.03 0.02 0.02 0.03 0.05 0.05 0.05 0.03 0.02 0.03 0.03 0.02
0.00 0.00 0.00 0.00 0.00 0.00 0.00 0.00 0.00 0.00 0.00 0.00 0.00 0.00 0.00 0.00 0.00 0.00 0.00 0.00 0.00 0.00 0.00 0.00 0.00 0.00 0.00 0.00 0.00 0.00 0.00 0.01 0.01 0.01 0.01 0.01 0.01 0.00 0.00 0.00 0.00 0.00 0.01
0.00 0.00 0.00 0.00 0.00 0.00 0.00 0.00 0.00 0.00 0.00 0.00 0.00 0.00 0.00 0.00 0.00 0.00 0.00 0.00 0.00 0.00 0.00 0.00 0.00 0.00 0.00 0.00 0.00 0.00 0.00 0.00 0.00 0.00 0.00 0.00 0.01 0.01 0.01 0.01 0.03 0.02 0.02
0.00 0.00 0.00 0.00 0.00 0.00 0.00 0.00 0.00 0.00 0.00 0.00 0.00 0.00 0.00 0.00 0.00 0.00 0.00 0.00 0.00 0.00 0.00 0.00 0.00 0.00 0.00 0.00 0.00 0.00 0.00 0.00 0.00 0.00 0.00 0.00 0.00 0.00 0.01 0.01 0.02 0.05 0.04
0.00 0.00 0.00 0.00 0.00 0.00 0.00 0.00 0.00 0.00 0.00 0.00 0.00 0.00 0.00 0.00 0.00 0.00 0.00 0.00 0.00 0.00 0.00 0.00 0.00 0.00 0.00 0.00 0.00 0.00 0.00 0.00 0.00 0.00 0.00 0.00 0.00 0.00 0.00 0.00 0.00 0.01 0.03
0.00 0.00 0.00 0.00 0.00 0.00 0.00 0.01 0.02 0.01 0.00 0.00 0.00 0.00 0.00 0.00 0.00 0.00 0.00 0.00 0.00 0.00 0.00 0.00 0.00 0.00 0.00 0.00 0.00 0.00 0.00 0.00 0.00 0.00 0.00 0.00 0.00 0.00 0.00 0.00 0.00 0.00 0.00
0.00 0.00 0.00 0.00 0.00 0.00 0.00 0.00 0.01 0.01 0.00 0.00 0.00 0.00 0.00 0.00 0.00 0.00 0.00 0.00 0.00 0.00 0.00 0.00 0.00 0.00 0.00 0.00 0.00 0.00 0.00 0.00 0.00 0.00 0.00 0.00 0.00 0.00 0.00 0.00 0.00 0.00 0.00
0.00 0.00 0.00 0.00 0.00 0.00 0.00 0.01 0.00 0.00 0.00 0.00 0.01 0.00 0.00 0.00 0.00 0.00 0.00 0.00 0.00 0.00 0.00 0.00 0.00 0.00 0.00 0.00 0.00 0.00 0.00 0.00 0.00 0.00 0.00 0.00 0.00 0.00 0.00 0.00 0.00 0.00 0.00
0.00 0.00 0.01 0.00 0.00 0.00 0.00 0.01 0.01 0.01 0.00 0.00 0.00 0.00 0.00 0.00 0.00 0.00 0.00 0.00 0.00 0.00 0.00 0.00 0.00 0.00 0.00 0.00 0.00 0.00 0.00 0.00 0.00 0.00 0.00 0.00 0.00 0.00 0.00 0.00 0.00 0.00 0.00
0.00 0.00 0.00 0.00 0.00 0.00 0.00 0.00 0.01 0.01 0.00 0.00 0.00 0.00 0.00 0.01 0.01 0.00 0.00 0.00 0.00 0.00 0.00 0.00 0.00 0.00 0.00 0.00 0.00 0.00 0.00 0.00 0.00 0.00 0.00 0.00 0.00 0.00 0.00 0.00 0.00 0.00 0.00
0.00 0.00 0.00 0.00 0.00 0.00 0.00 0.00 0.00 0.01 0.01 0.01 0.00 0.00 0.01 0.00 0.01 0.00 0.00 0.00 0.00 0.00 0.00 0.00 0.00 0.00 0.00 0.00 0.00 0.00 0.00 0.00 0.00 0.00 0.00 0.00 0.00 0.00 0.00 0.01 0.00 0.00 0.00
0.00 0.00 0.00 0.00 0.00 0.00 0.00 0.00 0.00 0.00 0.00 0.00 0.00 0.00 0.00 0.01 0.00 0.00 0.00 0.00 0.00 0.00 0.00 0.00 0.00 0.00 0.00 0.00 0.01 0.01 0.01 0.01 0.01 0.00 0.00 0.01 0.01 0.00 0.01 0.01 0.00 0.00 0.00
0.00 0.00 0.00 0.00 0.00 0.00 0.00 0.00 0.00 0.00 0.00 0.00 0.00 0.00 0.00 0.00 0.00 0.00 0.00 0.00 0.00 0.00 0.00 0.00 0.00 0.00 0.01 0.01 0.01 0.01 0.01 0.01 0.01 0.01 0.01 0.01 0.01 0.01 0.01 0.01 0.01 0.01 0.00
0.00 0.00 0.00 0.00 0.00 0.00 0.00 0.00 0.00 0.00 0.00 0.00 0.00 0.00 0.00 0.00 0.00 0.00 0.00 0.00 0.00 0.00 0.00 0.00 0.00 0.00 0.00 0.00 0.00 0.01 0.01 0.01 0.01 0.01 0.01 0.01 0.01 0.01 0.01 0.01 0.01 0.01 0.00
0.00 0.00 0.00 0.00 0.00 0.00 0.00 0.00 0.00 0.00 0.00 0.00 0.00 0.00 0.00 0.00 0.00 0.00 0.00 0.00 0.00 0.00 0.00 0.00 0.00 0.00 0.00 0.00 0.00 0.01 0.01 0.01 0.01 0.01 0.01 0.01 0.01 0.01 0.02 0.01 0.01 0.01 0.01
0.00 0.00 0.00 0.00 0.00 0.00 0.00 0.00 0.00 0.00 0.00 0.00 0.00 0.00 0.00 0.00 0.00 0.00 0.00 0.01 0.00 0.00 0.00 0.00 0.00 0.00 0.00 0.00 0.00 0.00 0.01 0.02 0.01 0.01 0.02 0.02 0.01 0.01 0.02 0.02 0.02 0.02 0.01
0.00 0.00 0.00 0.00 0.00 0.00 0.00 0.01 0.01 0.01 0.00 0.00 0.00 0.00 0.00 0.00 0.01 0.00 0.00 0.00 0.00 0.00 0.00 0.00 0.00 0.00 0.00 0.00 0.00 0.00 0.01 0.01 0.01 0.01 0.02 0.02 0.01 0.01 0.02 0.03 0.02 0.01 0.01
0.00 0.00 0.00 0.00 0.00 0.00 0.00 0.01 0.01 0.01 0.00 0.00 0.00 0.00 0.00 0.00 0.00 0.00 0.00 0.00 0.00 0.00 0.00 0.00 0.00 0.00 0.00 0.00 0.00 0.01 0.00 0.01 0.01 0.01 0.02 0.03 0.03 0.02 0.04 0.04 0.02 0.01 0.01
0.00 0.00 0.00 0.00 0.00 0.00 0.00 0.00 0.00 0.00 0.00 0.00 0.00 0.00 0.00 0.00 0.00 0.00 0.00 0.00 0.00 0.00 0.00 0.00 0.00 0.00 0.00 0.00 0.01 0.01 0.00 0.00 0.01 0.01 0.02 0.02 0.03 0.04 0.03 0.02 0.01 0.02 0.01